Wetterdaten: Montag, 06.07.2020
Datum Zeit Temp. Aussen Temp. o. S. Temp +5cm Feuchte Auss Luftdruck Regen Sonnenschein Regendauer Solar Windben Empfang
06.07.2020 00:00 17,5 C 15,6 C 16,1 C 73 % 1012,3 hPa 0,0 l/m 0 min 0 min 0 W/m 9,7 km/h (2 Bft) 94,29 %
06.07.2020 00:02 17,4 C 15,6 C 15,6 C 74 % 1012,4 hPa 0,0 l/m 0 min 0 min 0 W/m 6,4 km/h (2 Bft) 92,11 %
06.07.2020 00:04 17,4 C 15,6 C 15,6 C 74 % 1012,3 hPa 0,0 l/m 0 min 0 min 0 W/m 9,7 km/h (2 Bft) 100,00 %
06.07.2020 00:08 17,3 C 15,6 C 15,6 C 74 % 1012,5 hPa 0,0 l/m 0 min 0 min 0 W/m 25,7 km/h (4 Bft) 100,00 %
06.07.2020 00:10 17,2 C 15,6 C 15,6 C 73 % 1012,5 hPa 0,0 l/m 0 min 0 min 0 W/m 22,5 km/h (4 Bft) 97,87 %
06.07.2020 00:12 17,1 C 15,6 C 15,6 C 72 % 1012,5 hPa 0,0 l/m 0 min 0 min 0 W/m 19,3 km/h (3 Bft) 97,87 %
06.07.2020 00:14 17,0 C 15,6 C 15,6 C 72 % 1012,5 hPa 0,0 l/m 0 min 0 min 0 W/m 12,9 km/h (3 Bft) 93,62 %
06.07.2020 00:16 17,0 C 15,6 C 15,6 C 71 % 1012,7 hPa 0,0 l/m 0 min 0 min 0 W/m 22,5 km/h (4 Bft) 93,62 %
06.07.2020 00:18 16,9 C 15,6 C 15,6 C 71 % 1012,5 hPa 0,0 l/m 0 min 0 min 0 W/m 12,9 km/h (3 Bft) 95,74 %
06.07.2020 00:20 16,9 C 15,6 C 15,6 C 71 % 1012,6 hPa 0,0 l/m 0 min 0 min 0 W/m 16,1 km/h (3 Bft) 95,65 %
06.07.2020 00:22 16,8 C 15,6 C 15,6 C 71 % 1012,5 hPa 0,0 l/m 0 min 0 min 0 W/m 19,3 km/h (3 Bft) 97,87 %
06.07.2020 00:24 16,8 C 15,6 C 15,6 C 71 % 1012,6 hPa 0,0 l/m 0 min 0 min 0 W/m 16,1 km/h (3 Bft) 95,74 %
06.07.2020 00:26 16,7 C 15,6 C 15,6 C 70 % 1012,5 hPa 0,0 l/m 0 min 0 min 0 W/m 12,9 km/h (3 Bft) 97,87 %
06.07.2020 00:28 16,7 C 15,6 C 15,6 C 71 % 1012,6 hPa 0,0 l/m 0 min 0 min 0 W/m 12,9 km/h (3 Bft) 97,87 %
06.07.2020 00:30 16,7 C 15,6 C 15,6 C 71 % 1012,7 hPa 0,0 l/m 0 min 0 min 0 W/m 19,3 km/h (3 Bft) 97,87 %
06.07.2020 00:32 16,6 C 15,6 C 15,6 C 71 % 1012,6 hPa 0,0 l/m 0 min 0 min 0 W/m 16,1 km/h (3 Bft) 95,65 %
06.07.2020 00:34 16,6 C 15,6 C 15,6 C 71 % 1012,6 hPa 0,0 l/m 0 min 0 min 0 W/m 12,9 km/h (3 Bft) 97,87 %
06.07.2020 00:36 16,6 C 15,6 C 15,6 C 71 % 1012,6 hPa 0,0 l/m 0 min 0 min 0 W/m 19,3 km/h (3 Bft) 93,62 %
06.07.2020 00:38 16,5 C 15,0 C 15,0 C 71 % 1012,6 hPa 0,0 l/m 0 min 0 min 0 W/m 12,9 km/h (3 Bft) 97,87 %
06.07.2020 00:40 16,5 C 15,0 C 15,0 C 71 % 1012,6 hPa 0,0 l/m 0 min 0 min 0 W/m 16,1 km/h (3 Bft) 97,87 %
06.07.2020 00:42 16,4 C 15,0 C 15,0 C 71 % 1012,7 hPa 0,0 l/m 0 min 0 min 0 W/m 12,9 km/h (3 Bft) 97,83 %
06.07.2020 00:44 16,4 C 15,0 C 15,0 C 71 % 1012,6 hPa 0,0 l/m 0 min 0 min 0 W/m 16,1 km/h (3 Bft) 97,87 %
06.07.2020 00:46 16,4 C 15,0 C 15,0 C 71 % 1012,7 hPa 0,0 l/m 0 min 0 min 0 W/m 19,3 km/h (3 Bft) 93,62 %
06.07.2020 00:48 16,3 C 15,0 C 15,0 C 71 % 1012,6 hPa 0,0 l/m 0 min 0 min 0 W/m 19,3 km/h (3 Bft) 95,74 %
06.07.2020 00:50 16,3 C 15,0 C 15,0 C 72 % 1012,7 hPa 0,0 l/m 0 min 0 min 0 W/m 12,9 km/h (3 Bft) 93,62 %
06.07.2020 00:52 16,3 C 15,0 C 15,0 C 72 % 1012,7 hPa 0,0 l/m 0 min 0 min 0 W/m 12,9 km/h (3 Bft) 95,74 %
06.07.2020 00:54 16,2 C 15,0 C 15,0 C 72 % 1012,7 hPa 0,0 l/m 0 min 0 min 0 W/m 12,9 km/h (3 Bft) 97,83 %
06.07.2020 00:56 16,2 C 14,4 C 15,0 C 73 % 1012,7 hPa 0,0 l/m 0 min 0 min 0 W/m 6,4 km/h (2 Bft) 95,74 %
06.07.2020 00:58 16,2 C 15,0 C 15,0 C 73 % 1012,8 hPa 0,0 l/m 0 min 0 min 0 W/m 19,3 km/h (3 Bft) 93,62 %
06.07.2020 01:00 16,2 C 15,0 C 15,0 C 73 % 1012,8 hPa 0,0 l/m 0 min 0 min 0 W/m 12,9 km/h (3 Bft) 95,74 %
06.07.2020 01:02 16,1 C 15,0 C 15,0 C 73 % 1012,8 hPa 0,0 l/m 0 min 0 min 0 W/m 12,9 km/h (3 Bft) 95,74 %
06.07.2020 01:04 16,1 C 14,4 C 15,0 C 73 % 1012,8 hPa 0,0 l/m 0 min 0 min 0 W/m 9,7 km/h (2 Bft) 95,74 %
06.07.2020 01:06 16,1 C 14,4 C 15,0 C 73 % 1012,9 hPa 0,0 l/m 0 min 0 min 0 W/m 6,4 km/h (2 Bft) 97,83 %
06.07.2020 01:08 16,1 C 15,0 C 15,0 C 73 % 1012,9 hPa 0,0 l/m 0 min 0 min 0 W/m 6,4 km/h (2 Bft) 95,74 %
06.07.2020 01:10 16,0 C 15,0 C 15,0 C 73 % 1013,0 hPa 0,0 l/m 0 min 0 min 0 W/m 16,1 km/h (3 Bft) 95,74 %
06.07.2020 01:12 16,0 C 15,0 C 15,0 C 74 % 1013,0 hPa 0,0 l/m 0 min 0 min 0 W/m 16,1 km/h (3 Bft) 95,74 %
06.07.2020 01:14 15,9 C 15,0 C 15,0 C 73 % 1013,1 hPa 0,0 l/m 0 min 0 min 0 W/m 22,5 km/h (4 Bft) 97,87 %
06.07.2020 01:16 15,9 C 15,0 C 15,0 C 73 % 1013,0 hPa 0,0 l/m 0 min 0 min 0 W/m 19,3 km/h (3 Bft) 95,74 %
06.07.2020 01:18 15,9 C 15,0 C 15,0 C 73 % 1013,0 hPa 0,0 l/m 0 min 0 min 0 W/m 16,1 km/h (3 Bft) 97,83 %
06.07.2020 01:20 15,9 C 15,0 C 15,0 C 73 % 1013,0 hPa 0,0 l/m 0 min 0 min 0 W/m 16,1 km/h (3 Bft) 95,74 %
06.07.2020 01:22 15,9 C 15,0 C 15,0 C 73 % 1013,0 hPa 0,0 l/m 0 min 0 min 0 W/m 16,1 km/h (3 Bft) 95,74 %
06.07.2020 01:24 15,9 C 15,0 C 15,0 C 73 % 1013,1 hPa 0,0 l/m 0 min 0 min 0 W/m 19,3 km/h (3 Bft) 97,87 %
06.07.2020 01:26 15,8 C 15,0 C 15,0 C 73 % 1013,1 hPa 0,0 l/m 0 min 0 min 0 W/m 16,1 km/h (3 Bft) 97,87 %
06.07.2020 01:28 15,8 C 15,0 C 15,0 C 73 % 1013,0 hPa 0,0 l/m 0 min 0 min 0 W/m 19,3 km/h (3 Bft) 97,87 %
06.07.2020 01:30 15,8 C 15,0 C 15,0 C 73 % 1013,0 hPa 0,0 l/m 0 min 0 min 0 W/m 9,7 km/h (2 Bft) 97,83 %
06.07.2020 01:32 15,8 C 15,0 C 15,0 C 73 % 1013,1 hPa 0,0 l/m 0 min 0 min 0 W/m 16,1 km/h (3 Bft) 97,87 %
06.07.2020 01:34 15,8 C 15,0 C 15,0 C 73 % 1013,0 hPa 0,0 l/m 0 min 0 min 0 W/m 16,1 km/h (3 Bft) 100,00 %
06.07.2020 01:36 15,8 C 15,0 C 15,0 C 73 % 1013,1 hPa 0,0 l/m 0 min 0 min 0 W/m 12,9 km/h (3 Bft) 100,00 %
06.07.2020 01:38 15,8 C 15,0 C 15,0 C 73 % 1013,1 hPa 0,0 l/m 0 min 0 min 0 W/m 12,9 km/h (3 Bft) 100,00 %
06.07.2020 01:40 15,8 C 15,0 C 15,0 C 73 % 1013,1 hPa 0,0 l/m 0 min 0 min 0 W/m 9,7 km/h (2 Bft) 100,00 %
06.07.2020 01:42 15,8 C 15,0 C 15,0 C 73 % 1013,1 hPa 0,0 l/m 0 min 0 min 0 W/m 6,4 km/h (2 Bft) 97,87 %
06.07.2020 01:44 15,8 C 15,0 C 15,0 C 73 % 1013,1 hPa 0,0 l/m 0 min 0 min 0 W/m 12,9 km/h (3 Bft) 97,87 %
06.07.2020 01:46 15,8 C 15,0 C 15,0 C 73 % 1013,0 hPa 0,0 l/m 0 min 0 min 0 W/m 16,1 km/h (3 Bft) 97,87 %
06.07.2020 01:48 15,8 C 15,0 C 15,0 C 74 % 1013,0 hPa 0,0 l/m 0 min 0 min 0 W/m 16,1 km/h (3 Bft) 100,00 %
06.07.2020 01:50 15,8 C 15,0 C 15,0 C 74 % 1013,1 hPa 0,0 l/m 0 min 0 min 0 W/m 16,1 km/h (3 Bft) 100,00 %
06.07.2020 01:52 15,8 C 15,0 C 15,0 C 74 % 1013,1 hPa 0,0 l/m 0 min 0 min 0 W/m 16,1 km/h (3 Bft) 100,00 %
06.07.2020 01:54 15,7 C 14,4 C 14,4 C 73 % 1013,0 hPa 0,0 l/m 0 min 0 min 0 W/m 16,1 km/h (3 Bft) 100,00 %
06.07.2020 01:56 15,7 C 14,4 C 14,4 C 74 % 1013,0 hPa 0,0 l/m 0 min 0 min 0 W/m 19,3 km/h (3 Bft) 100,00 %
06.07.2020 01:58 15,7 C 14,4 C 14,4 C 74 % 1013,1 hPa 0,0 l/m 0 min 0 min 0 W/m 12,9 km/h (3 Bft) 97,87 %
06.07.2020 02:00 15,7 C 14,4 C 14,4 C 74 % 1013,1 hPa 0,0 l/m 0 min 0 min 0 W/m 22,5 km/h (4 Bft) 100,00 %
06.07.2020 02:02 15,7 C 14,4 C 14,4 C 74 % 1013,0 hPa 0,0 l/m 0 min 0 min 0 W/m 22,5 km/h (4 Bft) 97,87 %
06.07.2020 02:04 15,7 C 14,4 C 14,4 C 74 % 1013,1 hPa 0,0 l/m 0 min 0 min 0 W/m 12,9 km/h (3 Bft) 100,00 %
06.07.2020 02:06 15,7 C 14,4 C 14,4 C 74 % 1013,1 hPa 0,0 l/m 0 min 0 min 0 W/m 12,9 km/h (3 Bft) 100,00 %
06.07.2020 02:08 15,7 C 14,4 C 14,4 C 74 % 1013,1 hPa 0,0 l/m 0 min 0 min 0 W/m 16,1 km/h (3 Bft) 100,00 %
06.07.2020 02:10 15,6 C 14,4 C 14,4 C 74 % 1013,1 hPa 0,0 l/m 0 min 0 min 0 W/m 9,7 km/h (2 Bft) 100,00 %
06.07.2020 02:12 15,6 C 14,4 C 14,4 C 74 % 1013,0 hPa 0,0 l/m 0 min 0 min 0 W/m 19,3 km/h (3 Bft) 100,00 %
06.07.2020 02:14 15,6 C 14,4 C 14,4 C 74 % 1013,1 hPa 0,0 l/m 0 min 0 min 0 W/m 16,1 km/h (3 Bft) 100,00 %
06.07.2020 02:16 15,6 C 14,4 C 14,4 C 74 % 1013,1 hPa 0,0 l/m 0 min 0 min 0 W/m 16,1 km/h (3 Bft) 98,08 %
06.07.2020 02:18 15,6 C 14,4 C 14,4 C 74 % 1013,1 hPa 0,0 l/m 0 min 0 min 0 W/m 16,1 km/h (3 Bft) 100,00 %
06.07.2020 02:20 15,6 C 14,4 C 14,4 C 74 % 1013,2 hPa 0,0 l/m 0 min 0 min 0 W/m 16,1 km/h (3 Bft) 97,56 %
06.07.2020 02:22 15,6 C 14,4 C 14,4 C 74 % 1013,2 hPa 0,0 l/m 0 min 0 min 0 W/m 22,5 km/h (4 Bft) 100,00 %
06.07.2020 02:24 15,5 C 14,4 C 14,4 C 74 % 1013,2 hPa 0,0 l/m 0 min 0 min 0 W/m 12,9 km/h (3 Bft) 100,00 %
06.07.2020 02:26 15,5 C 14,4 C 14,4 C 75 % 1013,2 hPa 0,0 l/m 0 min 0 min 0 W/m 19,3 km/h (3 Bft) 100,00 %
06.07.2020 02:28 15,5 C 14,4 C 14,4 C 75 % 1013,2 hPa 0,0 l/m 0 min 0 min 0 W/m 19,3 km/h (3 Bft) 97,83 %
06.07.2020 02:30 15,4 C 14,4 C 14,4 C 75 % 1013,2 hPa 0,0 l/m 0 min 0 min 0 W/m 16,1 km/h (3 Bft) 100,00 %
06.07.2020 02:32 15,4 C 14,4 C 14,4 C 75 % 1013,2 hPa 0,0 l/m 0 min 0 min 0 W/m 6,4 km/h (2 Bft) 63,83 %
06.07.2020 02:34 15,4 C 14,4 C 14,4 C 75 % 1013,3 hPa 0,0 l/m 0 min 0 min 0 W/m 19,3 km/h (3 Bft) 90,00 %
06.07.2020 02:36 15,4 C 14,4 C 14,4 C 75 % 1013,3 hPa 0,0 l/m 0 min 0 min 0 W/m 16,1 km/h (3 Bft) 95,74 %
06.07.2020 02:38 15,4 C 14,4 C 14,4 C 76 % 1013,3 hPa 0,0 l/m 0 min 0 min 0 W/m 9,7 km/h (2 Bft) 97,83 %
06.07.2020 02:40 15,4 C 14,4 C 14,4 C 76 % 1013,3 hPa 0,0 l/m 0 min 0 min 0 W/m 16,1 km/h (3 Bft) 97,87 %
06.07.2020 02:42 15,3 C 14,4 C 14,4 C 76 % 1013,3 hPa 0,0 l/m 0 min 0 min 0 W/m 19,3 km/h (3 Bft) 97,87 %
06.07.2020 02:44 15,3 C 14,4 C 14,4 C 76 % 1013,2 hPa 0,0 l/m 0 min 0 min 0 W/m 16,1 km/h (3 Bft) 97,87 %
06.07.2020 02:46 15,3 C 14,4 C 14,4 C 76 % 1013,2 hPa 0,0 l/m 0 min 0 min 0 W/m 19,3 km/h (3 Bft) 97,87 %
06.07.2020 02:48 15,3 C 14,4 C 13,9 C 76 % 1013,2 hPa 0,0 l/m 0 min 0 min 0 W/m 19,3 km/h (3 Bft) 97,87 %
06.07.2020 02:50 15,3 C 14,4 C 13,9 C 76 % 1013,3 hPa 0,0 l/m 0 min 0 min 0 W/m 9,7 km/h (2 Bft) 97,83 %
06.07.2020 02:52 15,2 C 14,4 C 13,9 C 76 % 1013,3 hPa 0,0 l/m 0 min 0 min 0 W/m 19,3 km/h (3 Bft) 97,87 %
06.07.2020 02:54 15,2 C 13,9 C 13,9 C 77 % 1013,2 hPa 0,0 l/m 0 min 0 min 0 W/m 12,9 km/h (3 Bft) 97,87 %
06.07.2020 02:56 15,2 C 13,9 C 13,9 C 77 % 1013,1 hPa 0,0 l/m 0 min 0 min 0 W/m 16,1 km/h (3 Bft) 97,87 %
06.07.2020 02:58 15,2 C 13,9 C 13,9 C 77 % 1013,1 hPa 0,0 l/m 0 min 0 min 0 W/m 12,9 km/h (3 Bft) 97,87 %
06.07.2020 03:00 15,2 C 13,9 C 13,9 C 77 % 1013,2 hPa 0,0 l/m 0 min 0 min 0 W/m 16,1 km/h (3 Bft) 97,87 %
06.07.2020 03:02 15,1 C 13,9 C 13,9 C 77 % 1013,1 hPa 0,0 l/m 0 min 0 min 0 W/m 12,9 km/h (3 Bft) 97,83 %
06.07.2020 03:04 15,1 C 13,9 C 13,9 C 77 % 1013,1 hPa 0,0 l/m 0 min 0 min 0 W/m 12,9 km/h (3 Bft) 93,62 %
06.07.2020 03:06 15,1 C 13,9 C 13,9 C 77 % 1013,1 hPa 0,0 l/m 0 min 0 min 0 W/m 9,7 km/h (2 Bft) 97,87 %
06.07.2020 03:08 15,1 C 13,9 C 13,9 C 77 % 1013,1 hPa 0,0 l/m 0 min 0 min 0 W/m 19,3 km/h (3 Bft) 93,62 %
06.07.2020 03:10 15,0 C 13,9 C 13,9 C 77 % 1013,1 hPa 0,0 l/m 0 min 0 min 0 W/m 16,1 km/h (3 Bft) 95,74 %
06.07.2020 03:12 15,0 C 13,9 C 13,9 C 78 % 1013,1 hPa 0,0 l/m 0 min 0 min 0 W/m 12,9 km/h (3 Bft) 93,62 %
06.07.2020 03:14 15,0 C 13,9 C 13,9 C 78 % 1013,1 hPa 0,0 l/m 0 min 0 min 0 W/m 12,9 km/h (3 Bft) 93,48 %
06.07.2020 03:16 14,9 C 13,9 C 13,9 C 78 % 1013,0 hPa 0,0 l/m 0 min 0 min 0 W/m 12,9 km/h (3 Bft) 94,34 %
06.07.2020 03:18 14,9 C 13,9 C 13,9 C 78 % 1013,1 hPa 0,0 l/m 0 min 0 min 0 W/m 16,1 km/h (3 Bft) 95,12 %
06.07.2020 03:20 14,9 C 13,9 C 13,9 C 78 % 1013,0 hPa 0,0 l/m 0 min 0 min 0 W/m 19,3 km/h (3 Bft) 95,74 %
06.07.2020 03:22 14,9 C 13,9 C 13,9 C 78 % 1013,0 hPa 0,0 l/m 0 min 0 min 0 W/m 22,5 km/h (4 Bft) 93,62 %
06.07.2020 03:24 14,8 C 13,9 C 13,9 C 78 % 1013,0 hPa 0,0 l/m 0 min 0 min 0 W/m 41,8 km/h (6 Bft) 93,62 %
06.07.2020 03:26 14,8 C 13,9 C 13,9 C 79 % 1013,0 hPa 0,0 l/m 0 min 0 min 0 W/m 19,3 km/h (3 Bft) 93,48 %
06.07.2020 03:28 14,8 C 13,9 C 13,9 C 78 % 1013,1 hPa 0,0 l/m 0 min 0 min 0 W/m 12,9 km/h (3 Bft) 95,74 %
06.07.2020 03:30 14,7 C 13,9 C 13,9 C 79 % 1013,1 hPa 0,0 l/m 0 min 0 min 0 W/m 19,3 km/h (3 Bft) 95,74 %
06.07.2020 03:32 14,7 C 13,9 C 13,9 C 79 % 1013,0 hPa 0,0 l/m 0 min 0 min 0 W/m 22,5 km/h (4 Bft) 94,34 %
06.07.2020 03:34 14,7 C 13,3 C 13,9 C 79 % 1013,0 hPa 0,0 l/m 0 min 0 min 0 W/m 16,1 km/h (3 Bft) 93,62 %
06.07.2020 03:36 14,7 C 13,3 C 13,9 C 79 % 1013,0 hPa 0,0 l/m 0 min 0 min 0 W/m 12,9 km/h (3 Bft) 92,68 %
06.07.2020 03:38 14,7 C 13,3 C 13,9 C 79 % 1013,0 hPa 0,0 l/m 0 min 0 min 0 W/m 16,1 km/h (3 Bft) 94,34 %
06.07.2020 03:40 14,6 C 13,3 C 13,9 C 79 % 1013,1 hPa 0,0 l/m 0 min 0 min 0 W/m 22,5 km/h (4 Bft) 93,62 %
06.07.2020 03:42 14,6 C 13,3 C 13,9 C 79 % 1013,0 hPa 0,0 l/m 0 min 0 min 0 W/m 12,9 km/h (3 Bft) 95,74 %
06.07.2020 03:44 14,6 C 13,3 C 13,3 C 80 % 1013,1 hPa 0,0 l/m 0 min 0 min 0 W/m 22,5 km/h (4 Bft) 95,74 %
06.07.2020 03:46 14,6 C 13,3 C 13,3 C 80 % 1013,0 hPa 0,0 l/m 0 min 0 min 0 W/m 12,9 km/h (3 Bft) 95,65 %
06.07.2020 03:48 14,6 C 13,3 C 13,3 C 80 % 1013,0 hPa 0,0 l/m 0 min 0 min 0 W/m 22,5 km/h (4 Bft) 95,74 %
06.07.2020 03:50 14,5 C 13,3 C 13,3 C 80 % 1013,1 hPa 0,0 l/m 0 min 0 min 0 W/m 22,5 km/h (4 Bft) 95,74 %
06.07.2020 03:52 14,5 C 13,3 C 13,3 C 80 % 1013,0 hPa 0,0 l/m 0 min 0 min 0 W/m 19,3 km/h (3 Bft) 95,74 %
06.07.2020 03:54 14,4 C 13,3 C 13,3 C 80 % 1012,9 hPa 0,0 l/m 0 min 0 min 0 W/m 16,1 km/h (3 Bft) 95,74 %
06.07.2020 03:56 14,4 C 13,3 C 13,3 C 80 % 1013,0 hPa 0,0 l/m 0 min 0 min 0 W/m 22,5 km/h (4 Bft) 97,87 %
06.07.2020 03:58 14,4 C 13,3 C 13,3 C 80 % 1013,0 hPa 0,0 l/m 0 min 0 min 0 W/m 12,9 km/h (3 Bft) 95,65 %
06.07.2020 04:00 14,4 C 13,3 C 13,3 C 80 % 1013,0 hPa 0,0 l/m 0 min 0 min 0 W/m 12,9 km/h (3 Bft) 95,74 %
06.07.2020 04:02 14,4 C 13,3 C 13,3 C 80 % 1012,9 hPa 0,0 l/m 0 min 0 min 0 W/m 12,9 km/h (3 Bft) 94,12 %
06.07.2020 04:04 14,3 C 13,3 C 13,3 C 81 % 1012,9 hPa 0,0 l/m 0 min 0 min 0 W/m 9,7 km/h (2 Bft) 95,74 %
06.07.2020 04:06 14,3 C 13,3 C 13,3 C 81 % 1013,0 hPa 0,0 l/m 0 min 0 min 0 W/m 16,1 km/h (3 Bft) 97,87 %
06.07.2020 04:08 14,3 C 12,8 C 13,3 C 81 % 1013,0 hPa 0,0 l/m 0 min 0 min 0 W/m 16,1 km/h (3 Bft) 97,87 %
06.07.2020 04:10 14,3 C 12,8 C 12,8 C 81 % 1012,9 hPa 0,0 l/m 0 min 0 min 0 W/m 16,1 km/h (3 Bft) 95,65 %
06.07.2020 04:12 14,3 C 12,8 C 12,8 C 81 % 1013,0 hPa 0,0 l/m 0 min 0 min 0 W/m 9,7 km/h (2 Bft) 97,87 %
06.07.2020 04:14 14,3 C 12,8 C 12,8 C 81 % 1013,0 hPa 0,0 l/m 0 min 0 min 0 W/m 22,5 km/h (4 Bft) 95,74 %
06.07.2020 04:16 14,3 C 12,8 C 12,8 C 81 % 1013,2 hPa 0,0 l/m 0 min 0 min 0 W/m 12,9 km/h (3 Bft) 97,87 %
06.07.2020 04:18 14,2 C 12,8 C 12,8 C 81 % 1013,1 hPa 0,0 l/m 0 min 0 min 0 W/m 6,4 km/h (2 Bft) 97,87 %
06.07.2020 04:20 14,2 C 12,8 C 12,8 C 82 % 1013,0 hPa 0,0 l/m 0 min 0 min 0 W/m 9,7 km/h (2 Bft) 97,87 %
06.07.2020 04:22 14,1 C 12,8 C 12,8 C 82 % 1013,0 hPa 0,0 l/m 0 min 0 min 0 W/m 12,9 km/h (3 Bft) 97,83 %
06.07.2020 04:24 14,1 C 12,8 C 12,8 C 82 % 1013,1 hPa 0,0 l/m 0 min 0 min 0 W/m 9,7 km/h (2 Bft) 100,00 %
06.07.2020 04:26 14,1 C 12,8 C 12,8 C 82 % 1013,1 hPa 0,0 l/m 0 min 0 min 0 W/m 16,1 km/h (3 Bft) 97,87 %
06.07.2020 04:28 14,0 C 12,8 C 12,8 C 82 % 1013,1 hPa 0,0 l/m 0 min 0 min 0 W/m 12,9 km/h (3 Bft) 100,00 %
06.07.2020 04:30 14,0 C 12,8 C 12,8 C 82 % 1013,2 hPa 0,0 l/m 0 min 0 min 0 W/m 22,5 km/h (4 Bft) 100,00 %
06.07.2020 04:32 13,9 C 12,8 C 12,8 C 83 % 1013,1 hPa 0,0 l/m 0 min 0 min 0 W/m 19,3 km/h (3 Bft) 97,87 %
06.07.2020 04:34 13,9 C 12,8 C 12,8 C 83 % 1013,1 hPa 0,0 l/m 0 min 0 min 0 W/m 19,3 km/h (3 Bft) 100,00 %
06.07.2020 04:36 13,9 C 12,8 C 12,8 C 83 % 1013,1 hPa 0,0 l/m 0 min 0 min 0 W/m 6,4 km/h (2 Bft) 100,00 %
06.07.2020 04:38 13,9 C 12,8 C 12,8 C 83 % 1013,0 hPa 0,0 l/m 0 min 0 min 0 W/m 12,9 km/h (3 Bft) 100,00 %
06.07.2020 04:40 13,8 C 12,8 C 12,8 C 83 % 1013,1 hPa 0,0 l/m 0 min 0 min 0 W/m 12,9 km/h (3 Bft) 100,00 %
06.07.2020 04:42 13,8 C 12,8 C 12,8 C 83 % 1013,1 hPa 0,0 l/m 0 min 0 min 0 W/m 19,3 km/h (3 Bft) 97,87 %
06.07.2020 04:44 13,8 C 12,2 C 12,8 C 83 % 1013,0 hPa 0,0 l/m 0 min 0 min 0 W/m 6,4 km/h (2 Bft) 100,00 %
06.07.2020 04:46 13,8 C 12,2 C 12,8 C 83 % 1013,1 hPa 0,0 l/m 0 min 0 min 0 W/m 19,3 km/h (3 Bft) 100,00 %
06.07.2020 04:48 13,7 C 12,2 C 12,8 C 84 % 1013,0 hPa 0,0 l/m 0 min 0 min 0 W/m 16,1 km/h (3 Bft) 100,00 %
06.07.2020 04:50 13,7 C 12,2 C 12,8 C 84 % 1013,0 hPa 0,0 l/m 0 min 0 min 0 W/m 22,5 km/h (4 Bft) 97,87 %
06.07.2020 04:52 13,7 C 12,2 C 12,8 C 84 % 1013,1 hPa 0,0 l/m 0 min 0 min 0 W/m 19,3 km/h (3 Bft) 95,74 %
06.07.2020 04:54 13,7 C 12,2 C 12,8 C 84 % 1013,1 hPa 0,0 l/m 0 min 0 min 0 W/m 6,4 km/h (2 Bft) 100,00 %
06.07.2020 04:56 13,6 C 12,2 C 12,8 C 84 % 1013,1 hPa 0,0 l/m 0 min 0 min 0 W/m 16,1 km/h (3 Bft) 100,00 %
06.07.2020 04:58 13,6 C 12,8 C 12,8 C 84 % 1013,2 hPa 0,0 l/m 0 min 0 min 0 W/m 22,5 km/h (4 Bft) 100,00 %
06.07.2020 05:00 13,6 C 12,8 C 12,8 C 84 % 1013,1 hPa 0,0 l/m 0 min 0 min 0 W/m 22,5 km/h (4 Bft) 100,00 %
06.07.2020 05:02 13,6 C 12,8 C 12,8 C 85 % 1013,1 hPa 0,0 l/m 0 min 0 min 0 W/m 22,5 km/h (4 Bft) 97,87 %
06.07.2020 05:04 13,6 C 12,8 C 12,8 C 85 % 1013,1 hPa 0,0 l/m 0 min 0 min 0 W/m 12,9 km/h (3 Bft) 100,00 %
06.07.2020 05:06 13,6 C 12,8 C 12,8 C 85 % 1013,2 hPa 0,0 l/m 0 min 0 min 0 W/m 12,9 km/h (3 Bft) 97,87 %
06.07.2020 05:08 13,6 C 12,2 C 12,8 C 85 % 1013,2 hPa 0,0 l/m 0 min 0 min 0 W/m 16,1 km/h (3 Bft) 100,00 %
06.07.2020 05:10 13,5 C 12,2 C 12,8 C 85 % 1013,1 hPa 0,0 l/m 0 min 0 min 0 W/m 19,3 km/h (3 Bft) 100,00 %
06.07.2020 05:12 13,5 C 12,2 C 12,8 C 85 % 1013,1 hPa 0,0 l/m 0 min 0 min 0 W/m 12,9 km/h (3 Bft) 100,00 %
06.07.2020 05:14 13,5 C 12,2 C 12,2 C 85 % 1013,1 hPa 0,0 l/m 0 min 0 min 0 W/m 19,3 km/h (3 Bft) 100,00 %
06.07.2020 05:16 13,4 C 12,2 C 12,2 C 85 % 1013,1 hPa 0,0 l/m 0 min 0 min 0 W/m 12,9 km/h (3 Bft) 100,00 %
06.07.2020 05:18 13,4 C 12,2 C 12,2 C 85 % 1013,1 hPa 0,0 l/m 0 min 0 min 0 W/m 12,9 km/h (3 Bft) 100,00 %
06.07.2020 05:20 13,4 C 12,2 C 12,2 C 85 % 1013,1 hPa 0,0 l/m 0 min 0 min 0 W/m 22,5 km/h (4 Bft) 100,00 %
06.07.2020 05:22 13,4 C 12,2 C 12,2 C 85 % 1013,0 hPa 0,0 l/m 0 min 0 min 0 W/m 25,7 km/h (4 Bft) 100,00 %
06.07.2020 05:24 13,4 C 12,2 C 12,2 C 86 % 1013,1 hPa 0,0 l/m 0 min 0 min 0 W/m 16,1 km/h (3 Bft) 100,00 %
06.07.2020 05:26 13,4 C 12,2 C 12,2 C 86 % 1013,1 hPa 0,0 l/m 0 min 0 min 0 W/m 19,3 km/h (3 Bft) 100,00 %
06.07.2020 05:28 13,3 C 12,2 C 12,2 C 86 % 1013,1 hPa 0,0 l/m 0 min 0 min 0 W/m 9,7 km/h (2 Bft) 100,00 %
06.07.2020 05:30 13,3 C 12,2 C 12,2 C 86 % 1013,2 hPa 0,0 l/m 0 min 0 min 0 W/m 19,3 km/h (3 Bft) 100,00 %
06.07.2020 05:32 13,3 C 12,2 C 12,2 C 86 % 1013,2 hPa 0,0 l/m 0 min 0 min 0 W/m 12,9 km/h (3 Bft) 100,00 %
06.07.2020 05:34 13,3 C 12,2 C 12,2 C 86 % 1013,2 hPa 0,0 l/m 0 min 0 min 1 W/m 9,7 km/h (2 Bft) 100,00 %
06.07.2020 05:36 13,3 C 12,2 C 12,2 C 86 % 1013,1 hPa 0,0 l/m 0 min 0 min 5 W/m 19,3 km/h (3 Bft) 100,00 %
06.07.2020 05:38 13,3 C 12,2 C 12,2 C 86 % 1013,2 hPa 0,0 l/m 0 min 0 min 5 W/m 19,3 km/h (3 Bft) 100,00 %
06.07.2020 05:40 13,2 C 12,2 C 12,2 C 86 % 1013,2 hPa 0,0 l/m 0 min 0 min 5 W/m 12,9 km/h (3 Bft) 100,00 %
06.07.2020 05:42 13,2 C 12,2 C 12,2 C 86 % 1013,3 hPa 0,0 l/m 0 min 0 min 7 W/m 12,9 km/h (3 Bft) 100,00 %
06.07.2020 05:44 13,2 C 11,7 C 12,2 C 86 % 1013,2 hPa 0,0 l/m 0 min 0 min 7 W/m 9,7 km/h (2 Bft) 100,00 %
06.07.2020 05:46 13,2 C 11,7 C 12,2 C 86 % 1013,2 hPa 0,0 l/m 0 min 0 min 7 W/m 16,1 km/h (3 Bft) 100,00 %
06.07.2020 05:48 13,2 C 11,7 C 12,2 C 87 % 1013,3 hPa 0,0 l/m 0 min 0 min 8 W/m 3,2 km/h (1 Bft) 97,87 %
06.07.2020 05:50 13,1 C 12,2 C 12,2 C 87 % 1013,4 hPa 0,0 l/m 0 min 0 min 9 W/m 22,5 km/h (4 Bft) 100,00 %
06.07.2020 05:52 13,1 C 12,2 C 12,2 C 87 % 1013,3 hPa 0,0 l/m 0 min 0 min 9 W/m 22,5 km/h (4 Bft) 97,87 %
06.07.2020 05:54 13,1 C 12,2 C 12,2 C 87 % 1013,3 hPa 0,0 l/m 0 min 2 min 11 W/m 16,1 km/h (3 Bft) 100,00 %
06.07.2020 05:56 13,1 C 12,2 C 12,2 C 87 % 1013,3 hPa 0,0 l/m 0 min 0 min 11 W/m 16,1 km/h (3 Bft) 95,74 %
06.07.2020 05:58 13,1 C 12,2 C 12,2 C 87 % 1013,2 hPa 0,0 l/m 0 min 0 min 11 W/m 22,5 km/h (4 Bft) 95,74 %
06.07.2020 06:00 13,0 C 11,7 C 12,2 C 87 % 1013,3 hPa 0,0 l/m 0 min 0 min 12 W/m 16,1 km/h (3 Bft) 93,62 %
06.07.2020 06:02 13,0 C 12,2 C 12,2 C 87 % 1013,3 hPa 0,0 l/m 0 min 0 min 12 W/m 19,3 km/h (3 Bft) 95,74 %
06.07.2020 06:04 12,9 C 12,2 C 12,2 C 87 % 1013,3 hPa 0,0 l/m 0 min 0 min 13 W/m 12,9 km/h (3 Bft) 97,87 %
06.07.2020 06:08 12,9 C 12,2 C 12,2 C 87 % 1013,4 hPa 0,0 l/m 0 min 0 min 14 W/m 22,5 km/h (4 Bft) 94,62 %
06.07.2020 06:10 12,9 C 12,2 C 12,2 C 88 % 1013,4 hPa 0,0 l/m 0 min 0 min 16 W/m 12,9 km/h (3 Bft) 91,49 %
06.07.2020 06:12 12,9 C 12,2 C 12,2 C 88 % 1013,4 hPa 0,0 l/m 0 min 0 min 16 W/m 16,1 km/h (3 Bft) 97,87 %
06.07.2020 06:14 12,9 C 12,2 C 12,2 C 88 % 1013,5 hPa 0,0 l/m 0 min 0 min 16 W/m 25,7 km/h (4 Bft) 93,62 %
06.07.2020 06:16 12,9 C 12,2 C 12,2 C 88 % 1013,4 hPa 0,0 l/m 0 min 0 min 17 W/m 19,3 km/h (3 Bft) 93,62 %
06.07.2020 06:18 12,9 C 12,2 C 12,2 C 88 % 1013,4 hPa 0,0 l/m 0 min 0 min 18 W/m 16,1 km/h (3 Bft) 95,65 %
06.07.2020 06:20 12,9 C 12,2 C 12,2 C 88 % 1013,4 hPa 0,0 l/m 0 min 0 min 19 W/m 6,4 km/h (2 Bft) 95,74 %
06.07.2020 06:22 12,9 C 12,2 C 12,2 C 88 % 1013,4 hPa 0,0 l/m 0 min 0 min 19 W/m 6,4 km/h (2 Bft) 93,62 %
06.07.2020 06:24 12,8 C 12,2 C 12,2 C 88 % 1013,5 hPa 0,0 l/m 0 min 0 min 19 W/m 29,0 km/h (5 Bft) 95,74 %
06.07.2020 06:26 12,8 C 12,2 C 12,2 C 88 % 1013,5 hPa 0,0 l/m 0 min 0 min 19 W/m 12,9 km/h (3 Bft) 91,49 %
06.07.2020 06:28 12,8 C 12,2 C 12,2 C 88 % 1013,6 hPa 0,0 l/m 0 min 0 min 21 W/m 25,7 km/h (4 Bft) 95,74 %
06.07.2020 06:30 12,8 C 12,2 C 12,2 C 88 % 1013,5 hPa 0,0 l/m 0 min 0 min 21 W/m 12,9 km/h (3 Bft) 91,30 %
06.07.2020 06:32 12,8 C 12,2 C 12,2 C 88 % 1013,5 hPa 0,0 l/m 0 min 0 min 21 W/m 16,1 km/h (3 Bft) 93,62 %
06.07.2020 06:34 12,8 C 12,2 C 12,2 C 89 % 1013,6 hPa 0,0 l/m 0 min 0 min 23 W/m 16,1 km/h (3 Bft) 91,49 %
06.07.2020 06:36 12,8 C 12,2 C 12,2 C 89 % 1013,5 hPa 0,0 l/m 0 min 0 min 23 W/m 12,9 km/h (3 Bft) 93,62 %
06.07.2020 06:38 12,8 C 12,2 C 12,2 C 89 % 1013,5 hPa 0,0 l/m 0 min 0 min 23 W/m 16,1 km/h (3 Bft) 91,49 %
06.07.2020 06:40 12,8 C 12,2 C 12,2 C 89 % 1013,5 hPa 0,0 l/m 0 min 2 min 25 W/m 3,2 km/h (1 Bft) 91,30 %
06.07.2020 06:42 12,8 C 12,2 C 12,2 C 89 % 1013,6 hPa 0,0 l/m 0 min 0 min 25 W/m 19,3 km/h (3 Bft) 95,74 %
06.07.2020 06:44 12,8 C 12,2 C 12,2 C 89 % 1013,5 hPa 0,0 l/m 0 min 0 min 25 W/m 16,1 km/h (3 Bft) 91,49 %
06.07.2020 06:46 12,8 C 12,2 C 12,2 C 89 % 1013,6 hPa 0,0 l/m 0 min 0 min 26 W/m 25,7 km/h (4 Bft) 91,49 %
06.07.2020 06:48 12,8 C 12,2 C 12,2 C 89 % 1013,6 hPa 0,0 l/m 0 min 0 min 26 W/m 16,1 km/h (3 Bft) 93,62 %
06.07.2020 06:50 12,8 C 12,2 C 12,2 C 89 % 1013,6 hPa 0,0 l/m 0 min 0 min 26 W/m 16,1 km/h (3 Bft) 95,74 %
06.07.2020 06:52 12,8 C 12,2 C 12,2 C 89 % 1013,6 hPa 0,0 l/m 0 min 0 min 28 W/m 19,3 km/h (3 Bft) 93,48 %
06.07.2020 06:54 12,8 C 12,2 C 12,2 C 89 % 1013,6 hPa 0,0 l/m 0 min 0 min 28 W/m 22,5 km/h (4 Bft) 95,74 %
06.07.2020 06:56 12,8 C 12,2 C 12,2 C 89 % 1013,7 hPa 0,0 l/m 0 min 0 min 29 W/m 16,1 km/h (3 Bft) 95,74 %
06.07.2020 06:58 12,8 C 12,2 C 12,2 C 89 % 1013,7 hPa 0,0 l/m 0 min 0 min 30 W/m 16,1 km/h (3 Bft) 93,62 %
06.07.2020 07:00 12,8 C 12,2 C 12,2 C 89 % 1013,7 hPa 0,0 l/m 0 min 0 min 34 W/m 19,3 km/h (3 Bft) 95,74 %
06.07.2020 07:02 12,8 C 12,2 C 12,2 C 89 % 1013,7 hPa 0,0 l/m 0 min 0 min 35 W/m 19,3 km/h (3 Bft) 95,74 %
06.07.2020 07:04 12,8 C 12,2 C 12,2 C 89 % 1013,7 hPa 0,0 l/m 0 min 0 min 33 W/m 12,9 km/h (3 Bft) 97,83 %
06.07.2020 07:06 12,8 C 12,2 C 12,2 C 89 % 1013,7 hPa 0,0 l/m 0 min 0 min 37 W/m 19,3 km/h (3 Bft) 97,87 %
06.07.2020 07:08 12,9 C 12,8 C 12,2 C 89 % 1013,8 hPa 0,0 l/m 0 min 0 min 45 W/m 12,9 km/h (3 Bft) 97,87 %
06.07.2020 07:10 12,9 C 12,8 C 12,2 C 89 % 1013,8 hPa 0,0 l/m 0 min 0 min 37 W/m 22,5 km/h (4 Bft) 97,87 %
06.07.2020 07:12 12,9 C 12,8 C 12,2 C 89 % 1013,8 hPa 0,0 l/m 0 min 0 min 38 W/m 16,1 km/h (3 Bft) 97,87 %
06.07.2020 07:14 12,9 C 12,8 C 12,2 C 89 % 1013,8 hPa 0,0 l/m 0 min 0 min 39 W/m 16,1 km/h (3 Bft) 97,87 %
06.07.2020 07:16 12,9 C 12,8 C 12,2 C 89 % 1013,7 hPa 0,0 l/m 0 min 0 min 41 W/m 12,9 km/h (3 Bft) 97,83 %
06.07.2020 07:18 12,9 C 12,8 C 12,2 C 89 % 1013,7 hPa 0,0 l/m 0 min 0 min 37 W/m 16,1 km/h (3 Bft) 97,87 %
06.07.2020 07:20 12,9 C 12,8 C 12,2 C 89 % 1013,7 hPa 0,0 l/m 0 min 0 min 40 W/m 12,9 km/h (3 Bft) 95,74 %
06.07.2020 07:22 13,0 C 12,8 C 12,2 C 89 % 1013,7 hPa 0,0 l/m 0 min 0 min 45 W/m 16,1 km/h (3 Bft) 97,87 %
06.07.2020 07:24 13,0 C 12,8 C 12,2 C 89 % 1013,8 hPa 0,0 l/m 0 min 0 min 47 W/m 16,1 km/h (3 Bft) 97,87 %
06.07.2020 07:26 13,1 C 12,8 C 12,2 C 89 % 1013,8 hPa 0,0 l/m 0 min 0 min 39 W/m 19,3 km/h (3 Bft) 97,87 %
06.07.2020 07:28 13,1 C 12,8 C 12,2 C 89 % 1013,8 hPa 0,0 l/m 0 min 0 min 44 W/m 16,1 km/h (3 Bft) 97,83 %
06.07.2020 07:30 13,1 C 12,8 C 12,2 C 89 % 1013,9 hPa 0,0 l/m 0 min 0 min 44 W/m 12,9 km/h (3 Bft) 97,87 %
06.07.2020 07:32 13,1 C 12,8 C 12,2 C 89 % 1013,9 hPa 0,0 l/m 0 min 0 min 46 W/m 16,1 km/h (3 Bft) 97,87 %
06.07.2020 07:34 13,1 C 12,8 C 12,8 C 89 % 1013,9 hPa 0,0 l/m 0 min 0 min 46 W/m 12,9 km/h (3 Bft) 100,00 %
06.07.2020 07:36 13,1 C 13,3 C 12,8 C 89 % 1013,9 hPa 0,0 l/m 0 min 0 min 49 W/m 19,3 km/h (3 Bft) 95,74 %
06.07.2020 07:38 13,2 C 13,3 C 12,8 C 89 % 1013,9 hPa 0,0 l/m 0 min 0 min 52 W/m 16,1 km/h (3 Bft) 100,00 %
06.07.2020 07:40 13,2 C 13,3 C 12,8 C 89 % 1013,9 hPa 0,0 l/m 0 min 0 min 59 W/m 22,5 km/h (4 Bft) 100,00 %
06.07.2020 07:42 13,2 C 13,3 C 12,8 C 89 % 1013,9 hPa 0,0 l/m 0 min 0 min 84 W/m 12,9 km/h (3 Bft) 100,00 %
06.07.2020 07:44 13,3 C 13,3 C 12,8 C 89 % 1013,9 hPa 0,0 l/m 0 min 0 min 71 W/m 12,9 km/h (3 Bft) 100,00 %
06.07.2020 07:46 13,3 C 13,9 C 12,8 C 89 % 1013,9 hPa 0,0 l/m 0 min 0 min 82 W/m 12,9 km/h (3 Bft) 97,87 %
06.07.2020 07:48 13,4 C 13,9 C 13,3 C 88 % 1014,0 hPa 0,0 l/m 0 min 0 min 81 W/m 12,9 km/h (3 Bft) 100,00 %
06.07.2020 07:50 13,4 C 13,9 C 13,3 C 88 % 1014,1 hPa 0,0 l/m 0 min 0 min 66 W/m 12,9 km/h (3 Bft) 100,00 %
06.07.2020 07:52 13,4 C 13,9 C 13,3 C 88 % 1014,0 hPa 0,0 l/m 0 min 0 min 57 W/m 16,1 km/h (3 Bft) 100,00 %
06.07.2020 07:54 13,5 C 13,9 C 13,3 C 88 % 1014,0 hPa 0,0 l/m 0 min 0 min 62 W/m 19,3 km/h (3 Bft) 100,00 %
06.07.2020 07:56 13,6 C 13,9 C 12,8 C 87 % 1014,1 hPa 0,0 l/m 0 min 0 min 61 W/m 29,0 km/h (5 Bft) 100,00 %
06.07.2020 07:58 13,6 C 13,9 C 12,8 C 87 % 1014,1 hPa 0,0 l/m 0 min 0 min 65 W/m 22,5 km/h (4 Bft) 100,00 %
06.07.2020 08:00 13,6 C 13,9 C 13,3 C 87 % 1014,1 hPa 0,0 l/m 0 min 0 min 93 W/m 16,1 km/h (3 Bft) 100,00 %
06.07.2020 08:02 13,7 C 14,4 C 13,3 C 87 % 1014,2 hPa 0,0 l/m 0 min 0 min 87 W/m 12,9 km/h (3 Bft) 100,00 %
06.07.2020 08:04 13,8 C 15,0 C 13,3 C 87 % 1014,1 hPa 0,0 l/m 0 min 0 min 71 W/m 25,7 km/h (4 Bft) 100,00 %
06.07.2020 08:06 13,8 C 15,6 C 13,3 C 87 % 1014,1 hPa 0,0 l/m 0 min 0 min 82 W/m 16,1 km/h (3 Bft) 100,00 %
06.07.2020 08:08 13,9 C 15,6 C 13,3 C 87 % 1014,2 hPa 0,0 l/m 0 min 0 min 104 W/m 16,1 km/h (3 Bft) 100,00 %
06.07.2020 08:10 13,9 C 15,6 C 13,3 C 86 % 1014,1 hPa 0,0 l/m 0 min 0 min 88 W/m 12,9 km/h (3 Bft) 100,00 %
06.07.2020 08:12 14,0 C 16,1 C 13,3 C 86 % 1014,1 hPa 0,0 l/m 0 min 0 min 77 W/m 12,9 km/h (3 Bft) 100,00 %
06.07.2020 08:14 14,1 C 17,2 C 13,9 C 86 % 1014,0 hPa 0,0 l/m 0 min 0 min 102 W/m 12,9 km/h (3 Bft) 100,00 %
06.07.2020 08:16 14,2 C 16,1 C 13,9 C 86 % 1014,1 hPa 0,0 l/m 0 min 0 min 87 W/m 19,3 km/h (3 Bft) 100,00 %
06.07.2020 08:18 14,3 C 16,1 C 13,9 C 85 % 1014,0 hPa 0,0 l/m 0 min 0 min 66 W/m 12,9 km/h (3 Bft) 100,00 %
06.07.2020 08:20 14,3 C 17,2 C 13,9 C 85 % 1014,1 hPa 0,0 l/m 0 min 0 min 84 W/m 9,7 km/h (2 Bft) 100,00 %
06.07.2020 08:22 14,3 C 17,8 C 13,9 C 85 % 1014,2 hPa 0,0 l/m 0 min 0 min 92 W/m 12,9 km/h (3 Bft) 100,00 %
06.07.2020 08:24 14,5 C 17,8 C 13,9 C 85 % 1014,2 hPa 0,0 l/m 0 min 0 min 97 W/m 25,7 km/h (4 Bft) 100,00 %
06.07.2020 08:26 14,6 C 17,2 C 13,9 C 84 % 1014,1 hPa 0,0 l/m 0 min 0 min 112 W/m 25,7 km/h (4 Bft) 100,00 %
06.07.2020 08:28 14,7 C 16,7 C 13,9 C 84 % 1014,1 hPa 0,0 l/m 0 min 0 min 109 W/m 19,3 km/h (3 Bft) 100,00 %
06.07.2020 08:30 14,8 C 17,2 C 14,4 C 84 % 1014,2 hPa 0,0 l/m 0 min 0 min 114 W/m 16,1 km/h (3 Bft) 100,00 %
06.07.2020 08:32 14,9 C 16,7 C 14,4 C 83 % 1014,1 hPa 0,0 l/m 0 min 0 min 111 W/m 19,3 km/h (3 Bft) 100,00 %
06.07.2020 08:34 14,9 C 16,7 C 15,0 C 83 % 1014,2 hPa 0,0 l/m 0 min 0 min 121 W/m 9,7 km/h (2 Bft) 100,00 %
06.07.2020 08:36 15,0 C 16,7 C 15,6 C 83 % 1014,2 hPa 0,0 l/m 0 min 0 min 122 W/m 22,5 km/h (4 Bft) 100,00 %
06.07.2020 08:38 15,1 C 17,8 C 16,7 C 83 % 1014,3 hPa 0,0 l/m 0 min 0 min 121 W/m 12,9 km/h (3 Bft) 100,00 %
06.07.2020 08:40 15,2 C 18,3 C 17,8 C 83 % 1014,3 hPa 0,0 l/m 0 min 0 min 126 W/m 12,9 km/h (3 Bft) 97,83 %
06.07.2020 08:42 15,3 C 18,3 C 17,8 C 82 % 1014,3 hPa 0,0 l/m 0 min 0 min 114 W/m 16,1 km/h (3 Bft) 97,87 %
06.07.2020 08:44 15,4 C 18,9 C 18,3 C 82 % 1014,4 hPa 0,0 l/m 0 min 0 min 160 W/m 25,7 km/h (4 Bft) 97,87 %
06.07.2020 08:46 15,5 C 17,8 C 17,2 C 81 % 1014,3 hPa 0,0 l/m 0 min 0 min 178 W/m 16,1 km/h (3 Bft) 97,87 %
06.07.2020 08:48 15,6 C 17,2 C 16,7 C 81 % 1014,3 hPa 0,0 l/m 0 min 0 min 140 W/m 19,3 km/h (3 Bft) 97,87 %
06.07.2020 08:50 15,6 C 16,7 C 16,1 C 80 % 1014,4 hPa 0,0 l/m 0 min 0 min 170 W/m 19,3 km/h (3 Bft) 95,65 %
06.07.2020 08:52 15,6 C 16,1 C 15,6 C 80 % 1014,4 hPa 0,0 l/m 0 min 0 min 221 W/m 35,4 km/h (5 Bft) 97,87 %
06.07.2020 08:54 15,6 C 16,1 C 15,6 C 80 % 1014,3 hPa 0,0 l/m 0 min 0 min 207 W/m 19,3 km/h (3 Bft) 97,87 %
06.07.2020 08:56 15,6 C 16,1 C 15,0 C 80 % 1014,4 hPa 0,0 l/m 0 min 0 min 184 W/m 12,9 km/h (3 Bft) 93,62 %
06.07.2020 08:58 15,7 C 16,1 C 15,0 C 80 % 1014,4 hPa 0,0 l/m 0 min 0 min 164 W/m 16,1 km/h (3 Bft) 97,87 %
06.07.2020 09:00 15,7 C 16,1 C 15,0 C 80 % 1014,4 hPa 0,0 l/m 0 min 0 min 160 W/m 9,7 km/h (2 Bft) 97,87 %
06.07.2020 09:02 15,7 C 15,6 C 15,0 C 80 % 1014,4 hPa 0,0 l/m 0 min 0 min 149 W/m 19,3 km/h (3 Bft) 95,74 %
06.07.2020 09:04 15,7 C 15,6 C 15,0 C 80 % 1014,4 hPa 0,0 l/m 0 min 0 min 129 W/m 16,1 km/h (3 Bft) 93,48 %
06.07.2020 09:06 15,6 C 15,6 C 14,4 C 79 % 1014,4 hPa 0,0 l/m 0 min 0 min 99 W/m 16,1 km/h (3 Bft) 97,87 %
06.07.2020 09:08 15,6 C 15,0 C 14,4 C 79 % 1014,6 hPa 0,0 l/m 0 min 0 min 124 W/m 25,7 km/h (4 Bft) 93,62 %
06.07.2020 09:10 15,6 C 15,6 C 15,0 C 79 % 1014,5 hPa 0,0 l/m 0 min 0 min 145 W/m 16,1 km/h (3 Bft) 97,87 %
06.07.2020 09:12 15,6 C 17,2 C 16,1 C 80 % 1014,5 hPa 0,0 l/m 0 min 0 min 174 W/m 12,9 km/h (3 Bft) 93,62 %
06.07.2020 09:14 15,6 C 18,3 C 17,8 C 80 % 1014,6 hPa 0,0 l/m 0 min 0 min 237 W/m 16,1 km/h (3 Bft) 95,65 %
06.07.2020 09:16 15,7 C 18,9 C 18,3 C 80 % 1014,5 hPa 0,0 l/m 2 min 0 min 411 W/m 16,1 km/h (3 Bft) 97,87 %
06.07.2020 09:18 15,7 C 18,9 C 18,3 C 80 % 1014,5 hPa 0,0 l/m 0 min 0 min 205 W/m 16,1 km/h (3 Bft) 97,87 %
06.07.2020 09:20 15,8 C 17,8 C 17,8 C 79 % 1014,7 hPa 0,0 l/m 0 min 0 min 146 W/m 29,0 km/h (5 Bft) 95,74 %
06.07.2020 09:22 15,8 C 16,7 C 16,7 C 79 % 1014,6 hPa 0,0 l/m 0 min 0 min 177 W/m 16,1 km/h (3 Bft) 93,62 %
06.07.2020 09:24 15,7 C 16,1 C 15,6 C 79 % 1014,6 hPa 0,0 l/m 0 min 0 min 155 W/m 16,1 km/h (3 Bft) 95,74 %
06.07.2020 09:26 15,7 C 17,2 C 16,7 C 79 % 1014,7 hPa 0,0 l/m 2 min 0 min 338 W/m 22,5 km/h (4 Bft) 97,83 %
06.07.2020 09:28 15,7 C 17,2 C 16,7 C 78 % 1014,6 hPa 0,0 l/m 2 min 0 min 323 W/m 12,9 km/h (3 Bft) 95,74 %
06.07.2020 09:30 15,7 C 17,8 C 17,2 C 79 % 1014,6 hPa 0,0 l/m 2 min 0 min 301 W/m 12,9 km/h (3 Bft) 97,87 %
06.07.2020 09:32 15,8 C 16,7 C 16,1 C 78 % 1014,6 hPa 0,0 l/m 2 min 0 min 335 W/m 19,3 km/h (3 Bft) 95,74 %
06.07.2020 09:34 15,8 C 17,2 C 16,7 C 78 % 1014,7 hPa 0,0 l/m 0 min 0 min 171 W/m 25,7 km/h (4 Bft) 95,74 %
06.07.2020 09:36 15,8 C 17,8 C 17,2 C 79 % 1014,6 hPa 0,0 l/m 0 min 0 min 183 W/m 16,1 km/h (3 Bft) 97,87 %
06.07.2020 09:38 15,9 C 16,7 C 16,1 C 78 % 1014,8 hPa 0,0 l/m 0 min 0 min 153 W/m 22,5 km/h (4 Bft) 97,83 %
06.07.2020 09:40 15,9 C 16,7 C 16,1 C 78 % 1014,7 hPa 0,0 l/m 0 min 0 min 172 W/m 12,9 km/h (3 Bft) 97,87 %
06.07.2020 09:42 15,9 C 18,3 C 17,2 C 78 % 1014,8 hPa 0,0 l/m 2 min 0 min 375 W/m 6,4 km/h (2 Bft) 97,87 %
06.07.2020 09:44 15,9 C 17,8 C 16,7 C 78 % 1014,7 hPa 0,0 l/m 2 min 0 min 478 W/m 16,1 km/h (3 Bft) 97,87 %
06.07.2020 09:46 16,1 C 18,3 C 17,2 C 78 % 1014,7 hPa 0,0 l/m 0 min 0 min 220 W/m 12,9 km/h (3 Bft) 95,74 %
06.07.2020 09:48 16,1 C 17,8 C 16,7 C 78 % 1014,8 hPa 0,0 l/m 0 min 0 min 199 W/m 12,9 km/h (3 Bft) 95,74 %
06.07.2020 09:50 16,1 C 17,8 C 17,2 C 78 % 1014,8 hPa 0,0 l/m 0 min 0 min 172 W/m 12,9 km/h (3 Bft) 95,65 %
06.07.2020 09:52 16,2 C 19,4 C 18,3 C 78 % 1014,7 hPa 0,0 l/m 2 min 0 min 308 W/m 16,1 km/h (3 Bft) 95,74 %
06.07.2020 09:54 16,3 C 18,9 C 18,9 C 77 % 1014,8 hPa 0,0 l/m 2 min 0 min 765 W/m 12,9 km/h (3 Bft) 95,74 %
06.07.2020 09:56 16,4 C 18,3 C 17,8 C 76 % 1014,8 hPa 0,0 l/m 0 min 0 min 257 W/m 22,5 km/h (4 Bft) 95,74 %
06.07.2020 09:58 16,4 C 17,2 C 16,7 C 76 % 1014,8 hPa 0,0 l/m 0 min 0 min 297 W/m 19,3 km/h (3 Bft) 95,74 %
06.07.2020 10:00 16,4 C 16,7 C 16,1 C 76 % 1014,8 hPa 0,0 l/m 0 min 0 min 177 W/m 12,9 km/h (3 Bft) 95,65 %
06.07.2020 10:02 16,3 C 16,7 C 16,1 C 75 % 1014,9 hPa 0,0 l/m 0 min 0 min 272 W/m 19,3 km/h (3 Bft) 95,74 %
06.07.2020 10:04 16,3 C 17,2 C 16,7 C 75 % 1014,9 hPa 0,0 l/m 0 min 0 min 288 W/m 16,1 km/h (3 Bft) 95,74 %
06.07.2020 10:06 16,3 C 17,2 C 16,7 C 76 % 1015,0 hPa 0,0 l/m 0 min 0 min 241 W/m 16,1 km/h (3 Bft) 93,62 %
06.07.2020 10:08 16,3 C 18,3 C 17,2 C 76 % 1014,9 hPa 0,0 l/m 2 min 0 min 331 W/m 16,1 km/h (3 Bft) 95,74 %
06.07.2020 10:10 16,4 C 17,8 C 17,2 C 75 % 1015,0 hPa 0,0 l/m 0 min 0 min 304 W/m 19,3 km/h (3 Bft) 95,74 %
06.07.2020 10:12 16,4 C 18,3 C 17,2 C 75 % 1015,0 hPa 0,0 l/m 0 min 0 min 287 W/m 16,1 km/h (3 Bft) 95,65 %
06.07.2020 10:14 16,5 C 18,3 C 17,2 C 76 % 1014,9 hPa 0,0 l/m 0 min 0 min 294 W/m 19,3 km/h (3 Bft) 95,74 %
06.07.2020 10:16 16,6 C 17,2 C 16,7 C 75 % 1015,0 hPa 0,0 l/m 0 min 0 min 177 W/m 19,3 km/h (3 Bft) 95,74 %
06.07.2020 10:18 16,6 C 16,7 C 16,7 C 75 % 1014,9 hPa 0,0 l/m 0 min 0 min 172 W/m 16,1 km/h (3 Bft) 95,74 %
06.07.2020 10:20 16,6 C 16,7 C 16,1 C 75 % 1015,0 hPa 0,0 l/m 0 min 0 min 194 W/m 9,7 km/h (2 Bft) 95,74 %
06.07.2020 10:22 16,6 C 16,7 C 16,1 C 76 % 1015,0 hPa 0,0 l/m 0 min 0 min 187 W/m 12,9 km/h (3 Bft) 93,62 %
06.07.2020 10:24 16,5 C 18,3 C 17,2 C 76 % 1015,0 hPa 0,0 l/m 0 min 0 min 192 W/m 16,1 km/h (3 Bft) 95,65 %
06.07.2020 10:26 16,6 C 20,0 C 18,9 C 76 % 1014,9 hPa 0,0 l/m 0 min 0 min 288 W/m 16,1 km/h (3 Bft) 95,74 %
06.07.2020 10:28 16,7 C 20,0 C 18,9 C 75 % 1014,9 hPa 0,0 l/m 2 min 0 min 660 W/m 12,9 km/h (3 Bft) 95,74 %
06.07.2020 10:30 16,8 C 19,4 C 18,9 C 75 % 1014,9 hPa 0,0 l/m 2 min 0 min 404 W/m 16,1 km/h (3 Bft) 95,74 %
06.07.2020 10:32 16,9 C 18,3 C 17,8 C 75 % 1015,1 hPa 0,0 l/m 0 min 0 min 287 W/m 25,7 km/h (4 Bft) 94,34 %
06.07.2020 10:34 16,9 C 17,8 C 17,8 C 73 % 1014,9 hPa 0,0 l/m 0 min 0 min 270 W/m 22,5 km/h (4 Bft) 97,56 %
06.07.2020 10:36 16,9 C 17,2 C 17,2 C 74 % 1014,9 hPa 0,0 l/m 0 min 0 min 220 W/m 19,3 km/h (3 Bft) 97,83 %
06.07.2020 10:38 16,9 C 16,7 C 16,7 C 74 % 1015,0 hPa 0,0 l/m 0 min 0 min 146 W/m 6,4 km/h (2 Bft) 97,87 %
06.07.2020 10:40 16,8 C 15,6 C 16,1 C 74 % 1015,0 hPa 0,0 l/m 0 min 2 min 104 W/m 16,1 km/h (3 Bft) 100,00 %
06.07.2020 10:42 16,7 C 13,3 C 15,6 C 75 % 1015,1 hPa 0,0 l/m 0 min 2 min 88 W/m 19,3 km/h (3 Bft) 97,87 %
06.07.2020 10:44 16,6 C 12,8 C 15,0 C 77 % 1015,1 hPa 0,0 l/m 0 min 2 min 70 W/m 12,9 km/h (3 Bft) 100,00 %
06.07.2020 10:46 16,3 C 12,8 C 14,4 C 78 % 1015,1 hPa 0,0 l/m 0 min 2 min 89 W/m 12,9 km/h (3 Bft) 100,00 %
06.07.2020 10:48 16,2 C 12,8 C 14,4 C 79 % 1015,1 hPa 0,0 l/m 0 min 2 min 78 W/m 9,7 km/h (2 Bft) 97,83 %
06.07.2020 10:50 16,1 C 15,0 C 15,0 C 80 % 1015,2 hPa 0,0 l/m 0 min 0 min 111 W/m 16,1 km/h (3 Bft) 100,00 %
06.07.2020 10:52 16,1 C 16,7 C 16,7 C 81 % 1015,2 hPa 0,0 l/m 0 min 0 min 134 W/m 12,9 km/h (3 Bft) 97,87 %
06.07.2020 10:54 16,1 C 17,8 C 17,8 C 82 % 1015,1 hPa 0,0 l/m 2 min 0 min 724 W/m 19,3 km/h (3 Bft) 100,00 %
06.07.2020 10:56 16,2 C 18,9 C 18,9 C 82 % 1015,1 hPa 0,0 l/m 2 min 0 min 770 W/m 12,9 km/h (3 Bft) 100,00 %
06.07.2020 10:58 16,3 C 19,4 C 19,4 C 81 % 1015,1 hPa 0,0 l/m 2 min 0 min 793 W/m 16,1 km/h (3 Bft) 100,00 %
06.07.2020 11:00 16,6 C 21,1 C 20,0 C 81 % 1015,1 hPa 0,0 l/m 2 min 0 min 835 W/m 9,7 km/h (2 Bft) 100,00 %
06.07.2020 11:02 16,8 C 21,1 C 20,6 C 82 % 1015,1 hPa 0,0 l/m 2 min 0 min 922 W/m 12,9 km/h (3 Bft) 100,00 %
06.07.2020 11:04 17,0 C 19,4 C 19,4 C 80 % 1015,0 hPa 0,0 l/m 2 min 0 min 640 W/m 12,9 km/h (3 Bft) 100,00 %
06.07.2020 11:06 16,9 C 17,2 C 17,8 C 78 % 1015,2 hPa 0,0 l/m 0 min 2 min 103 W/m 19,3 km/h (3 Bft) 100,00 %
06.07.2020 11:08 16,8 C 16,7 C 16,7 C 76 % 1015,2 hPa 0,0 l/m 0 min 2 min 118 W/m 12,9 km/h (3 Bft) 100,00 %
06.07.2020 11:10 16,8 C 18,9 C 17,2 C 76 % 1015,2 hPa 0,0 l/m 2 min 2 min 451 W/m 22,5 km/h (4 Bft) 100,00 %
06.07.2020 11:12 16,9 C 21,1 C 18,9 C 77 % 1015,2 hPa 0,0 l/m 2 min 0 min 975 W/m 19,3 km/h (3 Bft) 97,83 %
06.07.2020 11:14 17,1 C 20,6 C 18,9 C 77 % 1015,2 hPa 0,0 l/m 2 min 0 min 977 W/m 12,9 km/h (3 Bft) 93,62 %
06.07.2020 11:16 17,2 C 19,4 C 18,3 C 75 % 1015,2 hPa 0,0 l/m 2 min 0 min 497 W/m 19,3 km/h (3 Bft) 97,87 %
06.07.2020 11:18 17,3 C 21,1 C 18,9 C 76 % 1015,2 hPa 0,0 l/m 2 min 0 min 591 W/m 19,3 km/h (3 Bft) 97,87 %
06.07.2020 11:20 17,4 C 21,1 C 18,9 C 75 % 1015,3 hPa 0,0 l/m 2 min 0 min 756 W/m 19,3 km/h (3 Bft) 97,87 %
06.07.2020 11:22 17,6 C 20,0 C 18,3 C 74 % 1015,1 hPa 0,0 l/m 2 min 0 min 555 W/m 35,4 km/h (5 Bft) 95,65 %
06.07.2020 11:24 17,6 C 18,3 C 17,8 C 72 % 1015,1 hPa 0,0 l/m 0 min 0 min 201 W/m 19,3 km/h (3 Bft) 97,87 %
06.07.2020 11:26 17,5 C 17,2 C 17,2 C 72 % 1015,1 hPa 0,0 l/m 0 min 0 min 130 W/m 19,3 km/h (3 Bft) 95,74 %
06.07.2020 11:28 17,4 C 16,1 C 16,7 C 72 % 1015,2 hPa 0,0 l/m 0 min 0 min 74 W/m 12,9 km/h (3 Bft) 97,87 %
06.07.2020 11:30 17,3 C 14,4 C 16,1 C 73 % 1015,3 hPa 0,2 l/m 0 min 2 min 46 W/m 9,7 km/h (2 Bft) 97,87 %
06.07.2020 11:32 17,2 C 12,8 C 15,0 C 75 % 1015,3 hPa 0,0 l/m 0 min 2 min 45 W/m 16,1 km/h (3 Bft) 96,15 %
06.07.2020 11:34 16,9 C 12,2 C 15,0 C 77 % 1015,3 hPa 0,2 l/m 0 min 2 min 77 W/m 16,1 km/h (3 Bft) 97,87 %
06.07.2020 11:36 16,8 C 12,8 C 14,4 C 78 % 1015,4 hPa 0,0 l/m 0 min 2 min 126 W/m 16,1 km/h (3 Bft) 97,87 %
06.07.2020 11:38 16,6 C 13,3 C 14,4 C 79 % 1015,4 hPa 0,0 l/m 0 min 2 min 165 W/m 9,7 km/h (2 Bft) 97,56 %
06.07.2020 11:40 16,5 C 16,1 C 15,0 C 80 % 1015,4 hPa 0,0 l/m 0 min 0 min 261 W/m 9,7 km/h (2 Bft) 97,87 %
06.07.2020 11:42 16,5 C 16,7 C 15,6 C 81 % 1015,3 hPa 0,0 l/m 2 min 0 min 954 W/m 6,4 km/h (2 Bft) 95,74 %
06.07.2020 11:44 16,6 C 18,3 C 16,7 C 83 % 1015,3 hPa 0,0 l/m 2 min 0 min 879 W/m 12,9 km/h (3 Bft) 97,87 %
06.07.2020 11:46 16,7 C 18,9 C 17,2 C 83 % 1015,3 hPa 0,0 l/m 2 min 0 min 844 W/m 9,7 km/h (2 Bft) 97,83 %
06.07.2020 11:48 16,8 C 20,0 C 17,8 C 83 % 1015,2 hPa 0,0 l/m 2 min 0 min 911 W/m 12,9 km/h (3 Bft) 93,62 %
06.07.2020 11:50 17,1 C 18,9 C 17,8 C 83 % 1015,2 hPa 0,0 l/m 2 min 0 min 965 W/m 9,7 km/h (2 Bft) 97,87 %
06.07.2020 11:52 17,1 C 17,2 C 17,2 C 81 % 1015,1 hPa 0,0 l/m 2 min 0 min 612 W/m 12,9 km/h (3 Bft) 97,87 %
06.07.2020 11:54 17,1 C 15,6 C 16,7 C 80 % 1015,2 hPa 0,0 l/m 0 min 0 min 128 W/m 12,9 km/h (3 Bft) 97,87 %
06.07.2020 11:56 16,9 C 15,0 C 16,1 C 78 % 1015,3 hPa 0,0 l/m 0 min 0 min 117 W/m 12,9 km/h (3 Bft) 97,87 %
06.07.2020 11:58 16,8 C 14,4 C 15,6 C 77 % 1015,3 hPa 0,0 l/m 0 min 0 min 163 W/m 19,3 km/h (3 Bft) 100,00 %
06.07.2020 12:00 16,7 C 14,4 C 15,6 C 76 % 1015,3 hPa 0,0 l/m 0 min 0 min 197 W/m 12,9 km/h (3 Bft) 100,00 %
06.07.2020 12:02 16,6 C 14,4 C 15,6 C 77 % 1015,3 hPa 0,0 l/m 0 min 2 min 206 W/m 9,7 km/h (2 Bft) 100,00 %
06.07.2020 12:04 16,5 C 15,0 C 15,6 C 78 % 1015,3 hPa 0,0 l/m 0 min 0 min 222 W/m 9,7 km/h (2 Bft) 100,00 %
06.07.2020 12:08 16,6 C 18,9 C 16,7 C 79 % 1015,3 hPa 0,0 l/m 4 min 0 min 423 W/m 16,1 km/h (3 Bft) 99,00 %
06.07.2020 12:10 16,7 C 18,3 C 17,2 C 79 % 1015,4 hPa 0,0 l/m 2 min 0 min 666 W/m 12,9 km/h (3 Bft) 100,00 %
06.07.2020 12:12 16,8 C 18,3 C 17,2 C 78 % 1015,3 hPa 0,0 l/m 2 min 0 min 666 W/m 12,9 km/h (3 Bft) 100,00 %
06.07.2020 12:14 16,9 C 18,9 C 17,2 C 77 % 1015,4 hPa 0,0 l/m 2 min 0 min 409 W/m 16,1 km/h (3 Bft) 100,00 %
06.07.2020 12:16 17,1 C 20,0 C 18,3 C 78 % 1015,3 hPa 0,0 l/m 2 min 0 min 694 W/m 9,7 km/h (2 Bft) 97,87 %
06.07.2020 12:18 17,3 C 19,4 C 18,3 C 76 % 1015,4 hPa 0,0 l/m 2 min 0 min 1056 W/m 16,1 km/h (3 Bft) 100,00 %
06.07.2020 12:20 17,4 C 18,3 C 17,8 C 74 % 1015,4 hPa 0,0 l/m 2 min 0 min 737 W/m 12,9 km/h (3 Bft) 100,00 %
06.07.2020 12:22 17,4 C 17,8 C 17,2 C 74 % 1015,5 hPa 0,0 l/m 0 min 0 min 133 W/m 25,7 km/h (4 Bft) 100,00 %
06.07.2020 12:24 17,4 C 15,0 C 16,7 C 74 % 1015,6 hPa 0,0 l/m 0 min 2 min 149 W/m 22,5 km/h (4 Bft) 100,00 %
06.07.2020 12:26 17,4 C 13,9 C 16,7 C 78 % 1015,5 hPa 0,2 l/m 0 min 2 min 235 W/m 12,9 km/h (3 Bft) 100,00 %
06.07.2020 12:28 17,4 C 16,1 C 16,7 C 78 % 1015,5 hPa 0,0 l/m 0 min 2 min 367 W/m 12,9 km/h (3 Bft) 100,00 %
06.07.2020 12:30 17,5 C 16,1 C 17,2 C 80 % 1015,6 hPa 0,0 l/m 2 min 0 min 571 W/m 12,9 km/h (3 Bft) 100,00 %
06.07.2020 12:32 17,5 C 15,0 C 16,7 C 79 % 1015,7 hPa 0,0 l/m 0 min 0 min 255 W/m 12,9 km/h (3 Bft) 100,00 %
06.07.2020 12:34 17,4 C 13,9 C 16,7 C 78 % 1015,7 hPa 0,0 l/m 0 min 2 min 92 W/m 22,5 km/h (4 Bft) 100,00 %
06.07.2020 12:36 17,3 C 13,3 C 16,1 C 79 % 1015,9 hPa 0,2 l/m 0 min 2 min 73 W/m 16,1 km/h (3 Bft) 100,00 %
06.07.2020 12:38 17,1 C 12,2 C 15,0 C 79 % 1016,0 hPa 0,4 l/m 0 min 2 min 86 W/m 19,3 km/h (3 Bft) 97,87 %
06.07.2020 12:40 16,8 C 11,7 C 14,4 C 79 % 1016,0 hPa 0,0 l/m 0 min 2 min 102 W/m 16,1 km/h (3 Bft) 100,00 %
06.07.2020 12:42 16,6 C 11,7 C 13,9 C 79 % 1015,9 hPa 0,2 l/m 0 min 2 min 113 W/m 9,7 km/h (2 Bft) 100,00 %
06.07.2020 12:44 16,4 C 11,7 C 13,9 C 80 % 1015,9 hPa 0,0 l/m 0 min 2 min 134 W/m 16,1 km/h (3 Bft) 100,00 %
06.07.2020 12:46 16,2 C 12,2 C 13,9 C 81 % 1015,8 hPa 0,0 l/m 0 min 0 min 202 W/m 12,9 km/h (3 Bft) 100,00 %
06.07.2020 12:48 16,1 C 13,9 C 13,9 C 81 % 1015,9 hPa 0,0 l/m 0 min 0 min 265 W/m 6,4 km/h (2 Bft) 100,00 %
06.07.2020 12:50 16,1 C 16,7 C 15,0 C 83 % 1015,9 hPa 0,0 l/m 0 min 0 min 318 W/m 6,4 km/h (2 Bft) 100,00 %
06.07.2020 12:52 16,1 C 17,2 C 15,6 C 85 % 1015,9 hPa 0,0 l/m 2 min 0 min 1127 W/m 9,7 km/h (2 Bft) 97,83 %
06.07.2020 12:54 16,2 C 16,7 C 15,6 C 86 % 1015,9 hPa 0,0 l/m 2 min 0 min 593 W/m 9,7 km/h (2 Bft) 100,00 %
06.07.2020 12:56 16,2 C 16,1 C 15,6 C 86 % 1015,9 hPa 0,0 l/m 0 min 0 min 327 W/m 16,1 km/h (3 Bft) 95,74 %
06.07.2020 12:58 16,2 C 16,7 C 16,1 C 86 % 1015,9 hPa 0,0 l/m 0 min 0 min 353 W/m 6,4 km/h (2 Bft) 97,87 %
06.07.2020 13:00 16,2 C 16,7 C 16,1 C 87 % 1016,0 hPa 0,0 l/m 0 min 0 min 347 W/m 9,7 km/h (2 Bft) 97,87 %
06.07.2020 13:02 16,3 C 18,3 C 16,7 C 87 % 1016,0 hPa 0,0 l/m 0 min 0 min 339 W/m 6,4 km/h (2 Bft) 95,83 %
06.07.2020 13:04 16,4 C 17,8 C 16,7 C 88 % 1016,1 hPa 0,0 l/m 0 min 0 min 339 W/m 9,7 km/h (2 Bft) 95,65 %
06.07.2020 13:06 16,5 C 16,7 C 16,7 C 88 % 1016,0 hPa 0,0 l/m 0 min 0 min 222 W/m 9,7 km/h (2 Bft) 95,74 %
06.07.2020 13:08 16,6 C 16,1 C 16,1 C 88 % 1016,1 hPa 0,0 l/m 0 min 0 min 215 W/m 9,7 km/h (2 Bft) 95,74 %
06.07.2020 13:10 16,6 C 16,1 C 16,1 C 88 % 1016,1 hPa 0,0 l/m 0 min 0 min 244 W/m 12,9 km/h (3 Bft) 97,87 %
06.07.2020 13:12 16,6 C 16,1 C 16,1 C 87 % 1016,1 hPa 0,0 l/m 0 min 0 min 175 W/m 9,7 km/h (2 Bft) 97,87 %
06.07.2020 13:14 16,6 C 15,6 C 15,6 C 87 % 1016,0 hPa 0,0 l/m 0 min 0 min 149 W/m 12,9 km/h (3 Bft) 95,74 %
06.07.2020 13:16 16,6 C 18,3 C 16,1 C 86 % 1016,0 hPa 0,0 l/m 0 min 0 min 149 W/m 9,7 km/h (2 Bft) 95,65 %
06.07.2020 13:18 16,6 C 18,9 C 16,7 C 86 % 1016,0 hPa 0,0 l/m 2 min 0 min 566 W/m 9,7 km/h (2 Bft) 97,87 %
06.07.2020 13:20 16,7 C 18,3 C 16,7 C 87 % 1016,0 hPa 0,0 l/m 2 min 0 min 525 W/m 9,7 km/h (2 Bft) 95,74 %
06.07.2020 13:22 16,8 C 18,9 C 16,7 C 86 % 1016,1 hPa 0,0 l/m 0 min 0 min 308 W/m 12,9 km/h (3 Bft) 97,30 %
06.07.2020 13:24 16,8 C 17,8 C 16,7 C 84 % 1016,1 hPa 0,0 l/m 0 min 0 min 263 W/m 16,1 km/h (3 Bft) 93,62 %
06.07.2020 13:26 16,8 C 17,2 C 16,7 C 83 % 1016,1 hPa 0,0 l/m 0 min 0 min 197 W/m 12,9 km/h (3 Bft) 95,74 %
06.07.2020 13:28 16,9 C 16,7 C 16,1 C 83 % 1016,1 hPa 0,0 l/m 0 min 0 min 160 W/m 9,7 km/h (2 Bft) 95,74 %
06.07.2020 13:30 16,9 C 18,3 C 16,7 C 83 % 1016,2 hPa 0,0 l/m 0 min 0 min 185 W/m 9,7 km/h (2 Bft) 95,65 %
06.07.2020 13:32 17,0 C 18,9 C 16,7 C 82 % 1016,2 hPa 0,0 l/m 0 min 0 min 215 W/m 16,1 km/h (3 Bft) 95,74 %
06.07.2020 13:34 17,1 C 18,9 C 17,2 C 82 % 1016,2 hPa 0,0 l/m 2 min 0 min 804 W/m 29,0 km/h (5 Bft) 95,74 %
06.07.2020 13:36 17,1 C 18,9 C 17,2 C 79 % 1016,2 hPa 0,0 l/m 0 min 0 min 349 W/m 16,1 km/h (3 Bft) 95,74 %
06.07.2020 13:38 17,1 C 18,9 C 17,2 C 78 % 1016,3 hPa 0,0 l/m 0 min 0 min 381 W/m 16,1 km/h (3 Bft) 93,62 %
06.07.2020 13:40 17,2 C 20,0 C 17,2 C 78 % 1016,5 hPa 0,0 l/m 2 min 0 min 503 W/m 22,5 km/h (4 Bft) 95,83 %
06.07.2020 13:42 17,3 C 20,6 C 17,8 C 79 % 1016,3 hPa 0,0 l/m 2 min 0 min 503 W/m 12,9 km/h (3 Bft) 95,65 %
06.07.2020 13:44 17,4 C 19,4 C 17,8 C 80 % 1016,4 hPa 0,0 l/m 0 min 2 min 412 W/m 12,9 km/h (3 Bft) 95,74 %
06.07.2020 13:46 17,5 C 18,3 C 17,2 C 79 % 1016,4 hPa 0,0 l/m 0 min 2 min 325 W/m 19,3 km/h (3 Bft) 93,62 %
06.07.2020 13:48 17,4 C 17,8 C 16,7 C 77 % 1016,4 hPa 0,0 l/m 0 min 0 min 330 W/m 19,3 km/h (3 Bft) 95,74 %
06.07.2020 13:50 17,3 C 17,8 C 16,7 C 75 % 1016,4 hPa 0,0 l/m 0 min 0 min 325 W/m 19,3 km/h (3 Bft) 95,74 %
06.07.2020 13:52 17,3 C 17,8 C 16,1 C 74 % 1016,5 hPa 0,0 l/m 0 min 0 min 325 W/m 12,9 km/h (3 Bft) 93,62 %
06.07.2020 13:54 17,3 C 18,3 C 16,7 C 75 % 1016,5 hPa 0,0 l/m 0 min 0 min 372 W/m 16,1 km/h (3 Bft) 95,65 %
06.07.2020 13:56 17,3 C 18,3 C 16,7 C 75 % 1016,6 hPa 0,0 l/m 0 min 0 min 417 W/m 29,0 km/h (5 Bft) 91,49 %
06.07.2020 13:58 17,3 C 18,3 C 16,7 C 74 % 1016,6 hPa 0,0 l/m 0 min 2 min 333 W/m 12,9 km/h (3 Bft) 93,62 %
06.07.2020 14:00 17,3 C 17,2 C 16,1 C 75 % 1016,5 hPa 0,0 l/m 0 min 2 min 288 W/m 19,3 km/h (3 Bft) 95,74 %
06.07.2020 14:02 17,3 C 18,3 C 16,7 C 75 % 1016,6 hPa 0,0 l/m 0 min 0 min 356 W/m 22,5 km/h (4 Bft) 95,74 %
06.07.2020 14:04 17,3 C 18,9 C 16,7 C 75 % 1016,5 hPa 0,0 l/m 0 min 0 min 391 W/m 19,3 km/h (3 Bft) 95,74 %
06.07.2020 14:06 17,3 C 18,9 C 17,2 C 75 % 1016,6 hPa 0,0 l/m 0 min 0 min 379 W/m 19,3 km/h (3 Bft) 93,48 %
06.07.2020 14:08 17,4 C 18,9 C 17,2 C 74 % 1016,7 hPa 0,0 l/m 0 min 0 min 408 W/m 12,9 km/h (3 Bft) 93,62 %
06.07.2020 14:10 17,4 C 20,6 C 17,8 C 74 % 1016,6 hPa 0,0 l/m 0 min 0 min 415 W/m 12,9 km/h (3 Bft) 95,74 %
06.07.2020 14:12 17,6 C 22,8 C 18,9 C 75 % 1016,6 hPa 0,0 l/m 2 min 0 min 665 W/m 12,9 km/h (3 Bft) 95,74 %
06.07.2020 14:14 17,7 C 23,3 C 18,9 C 75 % 1016,7 hPa 0,0 l/m 2 min 0 min 1002 W/m 19,3 km/h (3 Bft) 93,62 %
06.07.2020 14:16 17,9 C 22,8 C 19,4 C 74 % 1016,5 hPa 0,0 l/m 2 min 0 min 979 W/m 29,0 km/h (5 Bft) 95,65 %
06.07.2020 14:18 18,1 C 23,3 C 19,4 C 74 % 1016,6 hPa 0,0 l/m 2 min 0 min 975 W/m 16,1 km/h (3 Bft) 95,74 %
06.07.2020 14:20 18,2 C 22,8 C 18,9 C 73 % 1016,7 hPa 0,0 l/m 2 min 0 min 984 W/m 22,5 km/h (4 Bft) 95,74 %
06.07.2020 14:22 18,3 C 22,2 C 18,9 C 72 % 1016,6 hPa 0,0 l/m 2 min 0 min 1005 W/m 22,5 km/h (4 Bft) 95,74 %
06.07.2020 14:24 18,4 C 22,8 C 18,9 C 72 % 1016,5 hPa 0,0 l/m 2 min 0 min 1100 W/m 22,5 km/h (4 Bft) 93,62 %
06.07.2020 14:26 18,4 C 21,7 C 18,9 C 72 % 1016,7 hPa 0,0 l/m 2 min 0 min 1127 W/m 25,7 km/h (4 Bft) 91,49 %
06.07.2020 14:28 18,5 C 21,7 C 18,3 C 71 % 1016,7 hPa 0,0 l/m 2 min 0 min 1079 W/m 38,6 km/h (5 Bft) 97,83 %
06.07.2020 14:30 18,6 C 22,8 C 18,9 C 72 % 1016,6 hPa 0,0 l/m 2 min 0 min 1080 W/m 16,1 km/h (3 Bft) 97,87 %
06.07.2020 14:32 18,7 C 22,2 C 18,9 C 73 % 1016,7 hPa 0,0 l/m 2 min 0 min 1064 W/m 19,3 km/h (3 Bft) 97,87 %
06.07.2020 14:34 18,8 C 22,2 C 18,9 C 72 % 1016,8 hPa 0,0 l/m 2 min 0 min 1058 W/m 25,7 km/h (4 Bft) 93,62 %
06.07.2020 14:36 18,9 C 23,3 C 18,9 C 72 % 1016,7 hPa 0,0 l/m 2 min 0 min 1022 W/m 12,9 km/h (3 Bft) 100,00 %
06.07.2020 14:38 19,0 C 23,3 C 18,9 C 72 % 1016,8 hPa 0,0 l/m 2 min 0 min 978 W/m 22,5 km/h (4 Bft) 97,87 %
06.07.2020 14:40 19,1 C 23,3 C 18,9 C 71 % 1016,6 hPa 0,0 l/m 2 min 0 min 968 W/m 29,0 km/h (5 Bft) 100,00 %
06.07.2020 14:42 19,1 C 23,3 C 18,9 C 71 % 1016,6 hPa 0,0 l/m 2 min 0 min 960 W/m 35,4 km/h (5 Bft) 100,00 %
06.07.2020 14:44 19,2 C 23,3 C 18,9 C 70 % 1016,7 hPa 0,0 l/m 2 min 0 min 956 W/m 16,1 km/h (3 Bft) 100,00 %
06.07.2020 14:46 19,2 C 22,8 C 18,9 C 69 % 1016,7 hPa 0,0 l/m 2 min 0 min 952 W/m 29,0 km/h (5 Bft) 95,74 %
06.07.2020 14:48 19,3 C 23,3 C 18,9 C 69 % 1016,6 hPa 0,2 l/m 2 min 0 min 952 W/m 45,1 km/h (6 Bft) 100,00 %
06.07.2020 14:50 19,4 C 22,8 C 18,9 C 69 % 1016,7 hPa 0,0 l/m 2 min 0 min 956 W/m 29,0 km/h (5 Bft) 100,00 %
06.07.2020 14:52 19,4 C 23,3 C 18,9 C 69 % 1016,7 hPa 0,0 l/m 2 min 0 min 958 W/m 25,7 km/h (4 Bft) 100,00 %
06.07.2020 14:54 19,5 C 23,3 C 18,9 C 70 % 1016,6 hPa 0,0 l/m 2 min 0 min 960 W/m 19,3 km/h (3 Bft) 100,00 %
06.07.2020 14:56 19,6 C 24,4 C 19,4 C 70 % 1016,6 hPa 0,0 l/m 2 min 0 min 970 W/m 16,1 km/h (3 Bft) 100,00 %
06.07.2020 14:58 19,8 C 24,4 C 19,4 C 71 % 1016,6 hPa 0,0 l/m 2 min 0 min 986 W/m 25,7 km/h (4 Bft) 100,00 %
06.07.2020 15:00 19,9 C 22,2 C 19,4 C 69 % 1016,7 hPa 0,0 l/m 2 min 0 min 977 W/m 19,3 km/h (3 Bft) 100,00 %
06.07.2020 15:02 19,9 C 22,2 C 19,4 C 69 % 1016,7 hPa 0,0 l/m 2 min 0 min 827 W/m 16,1 km/h (3 Bft) 100,00 %
06.07.2020 15:04 20,0 C 22,8 C 19,4 C 69 % 1016,7 hPa 0,0 l/m 2 min 0 min 535 W/m 29,0 km/h (5 Bft) 100,00 %
06.07.2020 15:06 20,0 C 21,7 C 18,9 C 69 % 1016,8 hPa 0,0 l/m 2 min 0 min 630 W/m 16,1 km/h (3 Bft) 100,00 %
06.07.2020 15:08 19,9 C 20,6 C 18,9 C 69 % 1016,8 hPa 0,0 l/m 0 min 0 min 236 W/m 12,9 km/h (3 Bft) 95,74 %
06.07.2020 15:10 19,9 C 21,1 C 18,9 C 69 % 1016,9 hPa 0,0 l/m 0 min 0 min 248 W/m 19,3 km/h (3 Bft) 100,00 %
06.07.2020 15:12 19,9 C 20,0 C 18,9 C 69 % 1016,8 hPa 0,0 l/m 0 min 0 min 260 W/m 19,3 km/h (3 Bft) 97,87 %
06.07.2020 15:14 19,8 C 19,4 C 18,3 C 67 % 1016,8 hPa 0,0 l/m 0 min 0 min 212 W/m 22,5 km/h (4 Bft) 100,00 %
06.07.2020 15:16 19,8 C 19,4 C 18,3 C 69 % 1016,7 hPa 0,0 l/m 0 min 0 min 158 W/m 12,9 km/h (3 Bft) 100,00 %
06.07.2020 15:18 19,7 C 18,9 C 17,8 C 69 % 1016,9 hPa 0,0 l/m 0 min 0 min 126 W/m 19,3 km/h (3 Bft) 97,87 %
06.07.2020 15:20 19,6 C 18,3 C 17,8 C 70 % 1016,9 hPa 0,0 l/m 0 min 0 min 105 W/m 6,4 km/h (2 Bft) 97,87 %
06.07.2020 15:22 19,5 C 17,2 C 17,2 C 71 % 1017,1 hPa 0,0 l/m 0 min 2 min 85 W/m 9,7 km/h (2 Bft) 97,87 %
06.07.2020 15:24 19,4 C 16,1 C 16,7 C 72 % 1017,1 hPa 0,0 l/m 0 min 2 min 68 W/m 19,3 km/h (3 Bft) 97,87 %
06.07.2020 15:26 19,2 C 15,6 C 16,7 C 72 % 1017,2 hPa 0,0 l/m 0 min 2 min 67 W/m 6,4 km/h (2 Bft) 100,00 %
06.07.2020 15:28 19,0 C 15,6 C 16,1 C 72 % 1017,2 hPa 0,0 l/m 0 min 2 min 72 W/m 6,4 km/h (2 Bft) 100,00 %
06.07.2020 15:30 18,8 C 15,6 C 16,1 C 73 % 1017,1 hPa 0,0 l/m 0 min 2 min 101 W/m 0,0 km/h (0 Bft) 97,87 %
06.07.2020 15:32 18,7 C 15,6 C 16,1 C 73 % 1017,2 hPa 0,0 l/m 0 min 0 min 174 W/m 0,0 km/h (0 Bft) 100,00 %
06.07.2020 15:34 18,6 C 17,8 C 16,1 C 75 % 1017,2 hPa 0,0 l/m 0 min 0 min 223 W/m 0,0 km/h (0 Bft) 100,00 %
06.07.2020 15:36 18,5 C 18,3 C 16,7 C 75 % 1017,3 hPa 0,0 l/m 0 min 0 min 287 W/m 6,4 km/h (2 Bft) 100,00 %
06.07.2020 15:38 18,4 C 20,0 C 16,7 C 75 % 1017,3 hPa 0,0 l/m 0 min 0 min 374 W/m 19,3 km/h (3 Bft) 97,83 %
06.07.2020 15:40 18,4 C 22,2 C 17,2 C 75 % 1017,2 hPa 0,0 l/m 2 min 0 min 858 W/m 16,1 km/h (3 Bft) 100,00 %
06.07.2020 15:42 18,5 C 23,3 C 17,2 C 75 % 1017,1 hPa 0,0 l/m 2 min 0 min 902 W/m 12,9 km/h (3 Bft) 97,87 %
06.07.2020 15:44 18,6 C 23,9 C 17,8 C 75 % 1017,1 hPa 0,0 l/m 2 min 0 min 891 W/m 0,0 km/h (0 Bft) 100,00 %
06.07.2020 15:46 18,8 C 25,0 C 17,8 C 75 % 1017,2 hPa 0,0 l/m 2 min 0 min 902 W/m 0,0 km/h (0 Bft) 100,00 %
06.07.2020 15:48 18,9 C 25,0 C 18,3 C 74 % 1017,1 hPa 0,0 l/m 2 min 0 min 934 W/m 3,2 km/h (1 Bft) 100,00 %
06.07.2020 15:50 19,1 C 23,9 C 17,8 C 72 % 1017,2 hPa 0,0 l/m 2 min 0 min 795 W/m 16,1 km/h (3 Bft) 100,00 %
06.07.2020 15:52 19,2 C 21,7 C 17,8 C 71 % 1017,2 hPa 0,0 l/m 0 min 0 min 298 W/m 3,2 km/h (1 Bft) 100,00 %
06.07.2020 15:54 19,2 C 20,0 C 17,8 C 69 % 1017,2 hPa 0,0 l/m 0 min 0 min 177 W/m 12,9 km/h (3 Bft) 97,87 %
06.07.2020 15:56 19,3 C 21,1 C 17,8 C 68 % 1017,3 hPa 0,0 l/m 0 min 0 min 200 W/m 12,9 km/h (3 Bft) 97,87 %
06.07.2020 15:58 19,3 C 23,3 C 18,3 C 68 % 1017,3 hPa 0,0 l/m 2 min 0 min 930 W/m 9,7 km/h (2 Bft) 97,96 %
06.07.2020 16:00 19,5 C 23,9 C 18,9 C 69 % 1017,3 hPa 0,0 l/m 2 min 0 min 1023 W/m 19,3 km/h (3 Bft) 97,87 %
06.07.2020 16:02 19,7 C 24,4 C 18,9 C 67 % 1017,4 hPa 0,0 l/m 2 min 0 min 979 W/m 12,9 km/h (3 Bft) 97,83 %
06.07.2020 16:04 19,8 C 21,7 C 18,9 C 65 % 1017,4 hPa 0,0 l/m 2 min 0 min 947 W/m 16,1 km/h (3 Bft) 95,74 %
06.07.2020 16:06 19,8 C 20,0 C 18,3 C 65 % 1017,3 hPa 0,0 l/m 0 min 0 min 150 W/m 16,1 km/h (3 Bft) 97,87 %
06.07.2020 16:08 19,7 C 18,9 C 17,8 C 65 % 1017,6 hPa 0,0 l/m 0 min 2 min 102 W/m 12,9 km/h (3 Bft) 97,87 %
06.07.2020 16:10 19,6 C 17,8 C 17,8 C 66 % 1017,6 hPa 0,0 l/m 0 min 2 min 83 W/m 0,0 km/h (0 Bft) 97,87 %
06.07.2020 16:12 19,4 C 17,2 C 17,2 C 67 % 1018,0 hPa 0,0 l/m 0 min 2 min 74 W/m 16,1 km/h (3 Bft) 97,87 %
06.07.2020 16:14 19,2 C 16,7 C 16,7 C 68 % 1018,0 hPa 0,0 l/m 0 min 2 min 97 W/m 32,2 km/h (5 Bft) 95,65 %
06.07.2020 16:16 18,8 C 16,1 C 16,1 C 68 % 1018,0 hPa 0,0 l/m 0 min 2 min 131 W/m 19,3 km/h (3 Bft) 95,74 %
06.07.2020 16:18 18,5 C 15,6 C 15,6 C 70 % 1018,1 hPa 0,0 l/m 0 min 2 min 133 W/m 16,1 km/h (3 Bft) 95,74 %
06.07.2020 16:20 18,2 C 15,6 C 15,6 C 70 % 1018,2 hPa 0,0 l/m 0 min 2 min 133 W/m 0,0 km/h (0 Bft) 95,74 %
06.07.2020 16:22 18,0 C 15,0 C 15,6 C 72 % 1018,2 hPa 0,0 l/m 0 min 2 min 152 W/m 16,1 km/h (3 Bft) 93,62 %
06.07.2020 16:24 17,8 C 15,6 C 15,6 C 73 % 1018,1 hPa 0,0 l/m 0 min 2 min 250 W/m 0,0 km/h (0 Bft) 95,74 %
06.07.2020 16:26 17,8 C 18,3 C 16,1 C 77 % 1018,1 hPa 0,0 l/m 0 min 2 min 276 W/m 6,4 km/h (2 Bft) 93,48 %
06.07.2020 16:28 17,8 C 18,3 C 16,7 C 77 % 1018,2 hPa 0,0 l/m 0 min 2 min 303 W/m 6,4 km/h (2 Bft) 93,62 %
06.07.2020 16:30 17,7 C 17,8 C 16,1 C 76 % 1018,2 hPa 0,0 l/m 0 min 0 min 246 W/m 9,7 km/h (2 Bft) 95,74 %
06.07.2020 16:32 17,7 C 17,2 C 16,1 C 76 % 1018,2 hPa 0,0 l/m 0 min 0 min 174 W/m 3,2 km/h (1 Bft) 95,74 %
06.07.2020 16:34 17,6 C 16,7 C 16,1 C 75 % 1018,1 hPa 0,0 l/m 0 min 0 min 143 W/m 6,4 km/h (2 Bft) 95,74 %
06.07.2020 16:36 17,5 C 16,7 C 16,1 C 75 % 1018,3 hPa 0,0 l/m 0 min 0 min 168 W/m 9,7 km/h (2 Bft) 95,65 %
06.07.2020 16:38 17,5 C 17,2 C 16,1 C 75 % 1018,3 hPa 0,0 l/m 0 min 0 min 255 W/m 3,2 km/h (1 Bft) 95,74 %
06.07.2020 16:40 17,4 C 17,8 C 16,1 C 76 % 1018,3 hPa 0,0 l/m 0 min 0 min 285 W/m 9,7 km/h (2 Bft) 95,74 %
06.07.2020 16:42 17,4 C 17,8 C 16,7 C 76 % 1018,3 hPa 0,0 l/m 0 min 0 min 315 W/m 19,3 km/h (3 Bft) 93,62 %
06.07.2020 16:44 17,4 C 17,8 C 16,7 C 75 % 1018,3 hPa 0,0 l/m 0 min 0 min 330 W/m 16,1 km/h (3 Bft) 97,87 %
06.07.2020 16:46 17,3 C 18,3 C 16,7 C 75 % 1018,3 hPa 0,0 l/m 0 min 0 min 310 W/m 9,7 km/h (2 Bft) 97,87 %
06.07.2020 16:48 17,4 C 18,3 C 16,7 C 76 % 1018,3 hPa 0,0 l/m 2 min 0 min 334 W/m 12,9 km/h (3 Bft) 97,83 %
06.07.2020 16:50 17,3 C 18,3 C 16,7 C 74 % 1018,3 hPa 0,0 l/m 2 min 0 min 356 W/m 25,7 km/h (4 Bft) 97,87 %
06.07.2020 16:52 17,4 C 18,9 C 16,7 C 73 % 1018,3 hPa 0,0 l/m 2 min 0 min 402 W/m 16,1 km/h (3 Bft) 93,62 %
06.07.2020 16:54 17,4 C 20,0 C 17,2 C 73 % 1018,3 hPa 0,0 l/m 2 min 0 min 484 W/m 19,3 km/h (3 Bft) 95,74 %
06.07.2020 16:56 17,6 C 22,2 C 17,8 C 72 % 1018,3 hPa 0,0 l/m 2 min 0 min 667 W/m 12,9 km/h (3 Bft) 95,74 %
06.07.2020 16:58 17,8 C 22,8 C 17,8 C 72 % 1018,3 hPa 0,0 l/m 2 min 0 min 839 W/m 6,4 km/h (2 Bft) 100,00 %
06.07.2020 17:00 17,9 C 22,2 C 17,8 C 70 % 1018,5 hPa 0,0 l/m 2 min 0 min 778 W/m 16,1 km/h (3 Bft) 97,83 %
06.07.2020 17:02 18,1 C 22,2 C 17,8 C 68 % 1018,3 hPa 0,0 l/m 2 min 0 min 758 W/m 16,1 km/h (3 Bft) 97,87 %
06.07.2020 17:04 18,3 C 22,2 C 17,8 C 67 % 1018,4 hPa 0,0 l/m 2 min 0 min 739 W/m 16,1 km/h (3 Bft) 97,87 %
06.07.2020 17:06 18,4 C 22,2 C 17,8 C 66 % 1018,4 hPa 0,0 l/m 2 min 0 min 722 W/m 22,5 km/h (4 Bft) 95,74 %
06.07.2020 17:08 18,6 C 22,2 C 18,3 C 67 % 1018,4 hPa 0,0 l/m 2 min 0 min 713 W/m 12,9 km/h (3 Bft) 100,00 %
06.07.2020 17:10 18,7 C 22,2 C 17,8 C 65 % 1018,4 hPa 0,0 l/m 2 min 0 min 703 W/m 19,3 km/h (3 Bft) 97,87 %
06.07.2020 17:12 18,9 C 22,2 C 18,3 C 65 % 1018,4 hPa 0,0 l/m 2 min 0 min 696 W/m 12,9 km/h (3 Bft) 97,83 %
06.07.2020 17:14 18,9 C 21,7 C 18,3 C 64 % 1018,5 hPa 0,0 l/m 2 min 0 min 687 W/m 22,5 km/h (4 Bft) 97,87 %
06.07.2020 17:16 19,1 C 21,7 C 18,3 C 64 % 1018,5 hPa 0,0 l/m 2 min 0 min 677 W/m 12,9 km/h (3 Bft) 100,00 %
06.07.2020 17:18 19,2 C 22,2 C 18,3 C 65 % 1018,5 hPa 0,0 l/m 2 min 0 min 676 W/m 0,0 km/h (0 Bft) 100,00 %
06.07.2020 17:20 19,3 C 22,8 C 18,3 C 66 % 1018,6 hPa 0,0 l/m 2 min 0 min 673 W/m 12,9 km/h (3 Bft) 97,87 %
06.07.2020 17:22 19,4 C 22,8 C 18,3 C 65 % 1018,5 hPa 0,0 l/m 2 min 0 min 671 W/m 19,3 km/h (3 Bft) 97,83 %
06.07.2020 17:24 19,4 C 21,7 C 18,3 C 64 % 1018,7 hPa 0,0 l/m 2 min 0 min 666 W/m 16,1 km/h (3 Bft) 97,87 %
06.07.2020 17:26 19,6 C 22,2 C 18,3 C 64 % 1018,6 hPa 0,0 l/m 2 min 0 min 667 W/m 12,9 km/h (3 Bft) 97,87 %
06.07.2020 17:28 19,7 C 22,8 C 18,3 C 65 % 1018,5 hPa 0,0 l/m 2 min 0 min 651 W/m 0,0 km/h (0 Bft) 97,87 %
06.07.2020 17:30 19,7 C 22,8 C 18,3 C 64 % 1018,5 hPa 0,0 l/m 2 min 0 min 682 W/m 9,7 km/h (2 Bft) 97,87 %
06.07.2020 17:32 19,8 C 23,3 C 18,9 C 64 % 1018,6 hPa 0,0 l/m 2 min 0 min 692 W/m 9,7 km/h (2 Bft) 97,87 %
06.07.2020 17:34 19,9 C 22,8 C 18,3 C 64 % 1018,6 hPa 0,0 l/m 2 min 0 min 696 W/m 9,7 km/h (2 Bft) 97,87 %
06.07.2020 17:36 20,0 C 22,8 C 18,9 C 63 % 1018,6 hPa 0,0 l/m 2 min 0 min 729 W/m 16,1 km/h (3 Bft) 97,83 %
06.07.2020 17:38 20,1 C 22,8 C 18,9 C 63 % 1018,5 hPa 0,0 l/m 2 min 0 min 689 W/m 12,9 km/h (3 Bft) 97,87 %
06.07.2020 17:40 20,1 C 23,3 C 18,9 C 63 % 1018,6 hPa 0,0 l/m 2 min 0 min 724 W/m 0,0 km/h (0 Bft) 97,87 %
06.07.2020 17:42 20,2 C 23,3 C 19,4 C 64 % 1018,6 hPa 0,0 l/m 2 min 0 min 726 W/m 16,1 km/h (3 Bft) 95,74 %
06.07.2020 17:44 20,3 C 22,8 C 19,4 C 63 % 1018,6 hPa 0,0 l/m 2 min 0 min 681 W/m 12,9 km/h (3 Bft) 97,87 %
06.07.2020 17:46 20,4 C 22,8 C 19,4 C 63 % 1018,6 hPa 0,0 l/m 2 min 0 min 650 W/m 9,7 km/h (2 Bft) 97,83 %
06.07.2020 17:48 20,4 C 20,6 C 18,9 C 62 % 1018,6 hPa 0,0 l/m 2 min 0 min 442 W/m 16,1 km/h (3 Bft) 97,87 %
06.07.2020 17:50 20,3 C 19,4 C 18,3 C 62 % 1018,8 hPa 0,0 l/m 0 min 0 min 128 W/m 12,9 km/h (3 Bft) 97,87 %
06.07.2020 17:52 20,2 C 18,9 C 18,3 C 62 % 1018,7 hPa 0,0 l/m 0 min 0 min 116 W/m 9,7 km/h (2 Bft) 95,74 %
06.07.2020 17:54 20,1 C 18,3 C 17,8 C 64 % 1018,6 hPa 0,0 l/m 0 min 0 min 144 W/m 16,1 km/h (3 Bft) 97,87 %
06.07.2020 17:56 19,9 C 18,3 C 17,8 C 63 % 1018,7 hPa 0,0 l/m 0 min 0 min 174 W/m 3,2 km/h (1 Bft) 95,74 %
06.07.2020 17:58 19,7 C 18,3 C 17,8 C 63 % 1018,8 hPa 0,0 l/m 0 min 0 min 213 W/m 16,1 km/h (3 Bft) 95,65 %
06.07.2020 18:00 19,5 C 20,0 C 17,8 C 63 % 1018,8 hPa 0,0 l/m 2 min 0 min 375 W/m 12,9 km/h (3 Bft) 97,87 %
06.07.2020 18:02 19,4 C 19,4 C 17,8 C 63 % 1018,8 hPa 0,0 l/m 2 min 0 min 397 W/m 6,4 km/h (2 Bft) 98,11 %
06.07.2020 18:04 19,3 C 18,9 C 17,8 C 63 % 1018,9 hPa 0,0 l/m 0 min 0 min 229 W/m 12,9 km/h (3 Bft) 97,56 %
06.07.2020 18:08 19,2 C 20,0 C 18,3 C 64 % 1018,9 hPa 0,0 l/m 4 min 0 min 382 W/m 19,3 km/h (3 Bft) 95,74 %
06.07.2020 18:10 19,2 C 19,4 C 18,3 C 64 % 1018,9 hPa 0,0 l/m 2 min 0 min 301 W/m 19,3 km/h (3 Bft) 97,83 %
06.07.2020 18:12 19,1 C 18,9 C 17,8 C 63 % 1018,9 hPa 0,0 l/m 0 min 0 min 172 W/m 22,5 km/h (4 Bft) 95,74 %
06.07.2020 18:14 19,1 C 18,3 C 17,8 C 63 % 1019,0 hPa 0,0 l/m 0 min 0 min 133 W/m 9,7 km/h (2 Bft) 95,74 %
06.07.2020 18:16 18,9 C 18,3 C 17,2 C 64 % 1018,9 hPa 0,0 l/m 0 min 0 min 135 W/m 3,2 km/h (1 Bft) 96,23 %
06.07.2020 18:18 18,8 C 17,8 C 17,2 C 64 % 1018,9 hPa 0,0 l/m 0 min 0 min 132 W/m 9,7 km/h (2 Bft) 97,83 %
06.07.2020 18:20 18,8 C 17,8 C 17,2 C 65 % 1018,9 hPa 0,0 l/m 0 min 0 min 115 W/m 3,2 km/h (1 Bft) 97,62 %
06.07.2020 18:22 18,8 C 17,8 C 17,2 C 65 % 1019,0 hPa 0,0 l/m 0 min 0 min 107 W/m 0,0 km/h (0 Bft) 97,83 %
06.07.2020 18:24 18,7 C 17,8 C 17,2 C 65 % 1019,1 hPa 0,0 l/m 0 min 0 min 100 W/m 6,4 km/h (2 Bft) 97,87 %
06.07.2020 18:26 18,6 C 17,8 C 16,7 C 65 % 1019,0 hPa 0,0 l/m 0 min 0 min 96 W/m 3,2 km/h (1 Bft) 97,87 %
06.07.2020 18:28 18,6 C 17,2 C 16,7 C 65 % 1019,1 hPa 0,0 l/m 0 min 0 min 94 W/m 16,1 km/h (3 Bft) 100,00 %
06.07.2020 18:30 18,4 C 17,2 C 16,7 C 65 % 1019,1 hPa 0,0 l/m 0 min 0 min 105 W/m 12,9 km/h (3 Bft) 100,00 %
06.07.2020 18:32 18,4 C 17,8 C 16,7 C 65 % 1019,2 hPa 0,0 l/m 0 min 0 min 150 W/m 6,4 km/h (2 Bft) 98,11 %
06.07.2020 18:34 18,3 C 18,3 C 17,2 C 66 % 1019,2 hPa 0,0 l/m 2 min 0 min 234 W/m 0,0 km/h (0 Bft) 100,00 %
06.07.2020 18:36 18,3 C 18,9 C 17,2 C 66 % 1019,2 hPa 0,0 l/m 2 min 0 min 252 W/m 0,0 km/h (0 Bft) 100,00 %
06.07.2020 18:38 18,3 C 18,9 C 17,2 C 66 % 1019,1 hPa 0,0 l/m 2 min 0 min 391 W/m 9,7 km/h (2 Bft) 100,00 %
06.07.2020 18:40 18,3 C 18,3 C 17,2 C 66 % 1019,2 hPa 0,0 l/m 0 min 0 min 154 W/m 6,4 km/h (2 Bft) 100,00 %
06.07.2020 18:42 18,3 C 18,3 C 17,2 C 67 % 1019,2 hPa 0,0 l/m 0 min 0 min 139 W/m 3,2 km/h (1 Bft) 95,74 %
06.07.2020 18:44 18,3 C 17,8 C 16,7 C 66 % 1019,2 hPa 0,0 l/m 0 min 0 min 119 W/m 12,9 km/h (3 Bft) 97,87 %
06.07.2020 18:46 18,2 C 17,2 C 16,7 C 66 % 1019,3 hPa 0,0 l/m 0 min 0 min 103 W/m 6,4 km/h (2 Bft) 95,74 %
06.07.2020 18:48 18,2 C 17,2 C 16,7 C 66 % 1019,3 hPa 0,0 l/m 0 min 0 min 108 W/m 3,2 km/h (1 Bft) 93,62 %
06.07.2020 18:50 18,2 C 17,2 C 16,1 C 66 % 1019,3 hPa 0,0 l/m 0 min 0 min 133 W/m 12,9 km/h (3 Bft) 95,74 %
06.07.2020 18:52 18,1 C 17,2 C 16,7 C 67 % 1019,3 hPa 0,0 l/m 0 min 0 min 160 W/m 3,2 km/h (1 Bft) 95,74 %
06.07.2020 18:54 18,1 C 17,8 C 16,7 C 67 % 1019,3 hPa 0,0 l/m 2 min 0 min 218 W/m 6,4 km/h (2 Bft) 95,65 %
06.07.2020 18:56 18,1 C 17,8 C 16,7 C 67 % 1019,3 hPa 0,0 l/m 2 min 0 min 230 W/m 22,5 km/h (4 Bft) 95,74 %
06.07.2020 18:58 18,1 C 17,8 C 16,7 C 68 % 1019,4 hPa 0,0 l/m 0 min 0 min 175 W/m 19,3 km/h (3 Bft) 93,62 %
06.07.2020 19:00 18,0 C 17,8 C 16,7 C 68 % 1019,3 hPa 0,0 l/m 0 min 0 min 160 W/m 12,9 km/h (3 Bft) 94,29 %
06.07.2020 19:02 17,9 C 17,2 C 16,7 C 68 % 1019,4 hPa 0,0 l/m 0 min 0 min 130 W/m 3,2 km/h (1 Bft) 94,23 %
06.07.2020 19:04 17,9 C 17,2 C 16,7 C 69 % 1019,4 hPa 0,0 l/m 0 min 0 min 119 W/m 0,0 km/h (0 Bft) 95,74 %
06.07.2020 19:06 17,9 C 17,2 C 16,7 C 69 % 1019,4 hPa 0,0 l/m 0 min 0 min 109 W/m 0,0 km/h (0 Bft) 95,74 %
06.07.2020 19:08 17,9 C 17,2 C 16,7 C 70 % 1019,5 hPa 0,0 l/m 0 min 0 min 103 W/m 0,0 km/h (0 Bft) 93,48 %
06.07.2020 19:10 17,9 C 17,2 C 16,7 C 70 % 1019,4 hPa 0,0 l/m 0 min 0 min 119 W/m 9,7 km/h (2 Bft) 95,74 %
06.07.2020 19:12 17,8 C 17,2 C 16,7 C 69 % 1019,5 hPa 0,0 l/m 0 min 0 min 153 W/m 9,7 km/h (2 Bft) 95,74 %
06.07.2020 19:14 17,8 C 17,8 C 16,7 C 69 % 1019,5 hPa 0,0 l/m 2 min 0 min 230 W/m 12,9 km/h (3 Bft) 91,49 %
06.07.2020 19:16 17,8 C 18,3 C 16,7 C 70 % 1019,5 hPa 0,0 l/m 2 min 0 min 378 W/m 0,0 km/h (0 Bft) 95,74 %
06.07.2020 19:18 17,9 C 18,3 C 16,7 C 70 % 1019,5 hPa 0,0 l/m 2 min 0 min 304 W/m 9,7 km/h (2 Bft) 93,62 %
06.07.2020 19:20 17,9 C 18,3 C 17,2 C 70 % 1019,5 hPa 0,0 l/m 0 min 0 min 136 W/m 6,4 km/h (2 Bft) 95,65 %
06.07.2020 19:22 17,9 C 17,8 C 16,7 C 70 % 1019,6 hPa 0,0 l/m 0 min 0 min 118 W/m 12,9 km/h (3 Bft) 95,74 %
06.07.2020 19:24 17,9 C 17,8 C 16,7 C 70 % 1019,6 hPa 0,0 l/m 0 min 0 min 110 W/m 3,2 km/h (1 Bft) 95,74 %
06.07.2020 19:26 17,9 C 17,2 C 16,7 C 69 % 1019,6 hPa 0,0 l/m 0 min 0 min 109 W/m 0,0 km/h (0 Bft) 95,74 %
06.07.2020 19:28 17,9 C 17,2 C 16,7 C 69 % 1019,6 hPa 0,0 l/m 0 min 0 min 106 W/m 6,4 km/h (2 Bft) 97,87 %
06.07.2020 19:30 17,9 C 17,2 C 16,7 C 69 % 1019,6 hPa 0,0 l/m 0 min 0 min 104 W/m 6,4 km/h (2 Bft) 100,00 %
06.07.2020 19:32 17,9 C 17,2 C 16,7 C 69 % 1019,6 hPa 0,0 l/m 0 min 0 min 104 W/m 6,4 km/h (2 Bft) 100,00 %
06.07.2020 19:34 17,8 C 17,2 C 16,7 C 68 % 1019,7 hPa 0,0 l/m 0 min 0 min 104 W/m 25,7 km/h (4 Bft) 97,87 %
06.07.2020 19:36 17,8 C 17,2 C 16,7 C 68 % 1019,6 hPa 0,0 l/m 0 min 0 min 106 W/m 16,1 km/h (3 Bft) 100,00 %
06.07.2020 19:38 17,7 C 17,2 C 16,7 C 66 % 1019,7 hPa 0,0 l/m 0 min 0 min 115 W/m 22,5 km/h (4 Bft) 100,00 %
06.07.2020 19:40 17,7 C 17,2 C 16,7 C 66 % 1019,8 hPa 0,0 l/m 0 min 0 min 114 W/m 41,8 km/h (6 Bft) 100,00 %
06.07.2020 19:42 17,6 C 17,2 C 16,1 C 67 % 1019,9 hPa 0,0 l/m 0 min 0 min 118 W/m 16,1 km/h (3 Bft) 95,65 %
06.07.2020 19:44 17,6 C 17,2 C 16,1 C 67 % 1019,8 hPa 0,0 l/m 0 min 0 min 115 W/m 9,7 km/h (2 Bft) 100,00 %
06.07.2020 19:46 17,6 C 17,2 C 16,1 C 67 % 1019,9 hPa 0,0 l/m 0 min 0 min 109 W/m 12,9 km/h (3 Bft) 100,00 %
06.07.2020 19:48 17,6 C 16,7 C 16,1 C 67 % 1019,8 hPa 0,0 l/m 0 min 0 min 106 W/m 16,1 km/h (3 Bft) 97,87 %
06.07.2020 19:50 17,5 C 16,7 C 16,1 C 68 % 1019,8 hPa 0,0 l/m 0 min 0 min 96 W/m 12,9 km/h (3 Bft) 100,00 %
06.07.2020 19:52 17,5 C 16,7 C 16,1 C 68 % 1019,9 hPa 0,0 l/m 0 min 0 min 98 W/m 6,4 km/h (2 Bft) 97,87 %
06.07.2020 19:54 17,4 C 16,7 C 16,1 C 68 % 1020,0 hPa 0,0 l/m 0 min 0 min 95 W/m 9,7 km/h (2 Bft) 100,00 %
06.07.2020 19:56 17,4 C 16,7 C 16,1 C 68 % 1020,0 hPa 0,0 l/m 0 min 0 min 111 W/m 9,7 km/h (2 Bft) 100,00 %
06.07.2020 19:58 17,4 C 16,7 C 16,1 C 69 % 1020,0 hPa 0,0 l/m 2 min 2 min 127 W/m 12,9 km/h (3 Bft) 100,00 %
06.07.2020 20:00 17,3 C 16,7 C 16,1 C 69 % 1020,0 hPa 0,0 l/m 0 min 2 min 109 W/m 12,9 km/h (3 Bft) 100,00 %
06.07.2020 20:02 17,3 C 16,7 C 16,1 C 69 % 1020,0 hPa 0,0 l/m 0 min 2 min 91 W/m 0,0 km/h (0 Bft) 100,00 %
06.07.2020 20:04 17,3 C 16,1 C 16,1 C 69 % 1020,2 hPa 0,0 l/m 0 min 0 min 76 W/m 16,1 km/h (3 Bft) 100,00 %
06.07.2020 20:06 17,2 C 16,1 C 15,6 C 68 % 1020,1 hPa 0,0 l/m 0 min 0 min 63 W/m 16,1 km/h (3 Bft) 97,83 %
06.07.2020 20:08 17,1 C 16,1 C 15,6 C 68 % 1020,0 hPa 0,0 l/m 0 min 0 min 53 W/m 16,1 km/h (3 Bft) 100,00 %
06.07.2020 20:10 17,1 C 15,6 C 15,6 C 68 % 1020,1 hPa 0,0 l/m 0 min 0 min 52 W/m 3,2 km/h (1 Bft) 100,00 %
06.07.2020 20:12 17,0 C 15,6 C 15,6 C 68 % 1020,0 hPa 0,0 l/m 0 min 0 min 59 W/m 6,4 km/h (2 Bft) 100,00 %
06.07.2020 20:14 16,9 C 15,6 C 15,6 C 69 % 1020,1 hPa 0,0 l/m 0 min 0 min 72 W/m 9,7 km/h (2 Bft) 100,00 %
06.07.2020 20:16 16,9 C 16,1 C 15,6 C 69 % 1020,1 hPa 0,0 l/m 0 min 0 min 76 W/m 3,2 km/h (1 Bft) 100,00 %
06.07.2020 20:18 16,8 C 16,1 C 15,6 C 69 % 1020,1 hPa 0,0 l/m 0 min 0 min 73 W/m 0,0 km/h (0 Bft) 100,00 %
06.07.2020 20:20 16,8 C 15,6 C 15,6 C 69 % 1020,1 hPa 0,0 l/m 0 min 0 min 65 W/m 9,7 km/h (2 Bft) 100,00 %
06.07.2020 20:22 16,8 C 15,6 C 15,6 C 69 % 1020,2 hPa 0,0 l/m 0 min 0 min 58 W/m 3,2 km/h (1 Bft) 95,74 %
06.07.2020 20:24 16,8 C 15,6 C 15,6 C 70 % 1020,1 hPa 0,0 l/m 0 min 0 min 61 W/m 6,4 km/h (2 Bft) 100,00 %
06.07.2020 20:26 16,8 C 15,6 C 15,6 C 70 % 1020,2 hPa 0,0 l/m 0 min 0 min 69 W/m 0,0 km/h (0 Bft) 100,00 %
06.07.2020 20:28 16,7 C 16,1 C 15,6 C 70 % 1020,2 hPa 0,0 l/m 0 min 0 min 75 W/m 0,0 km/h (0 Bft) 97,83 %
06.07.2020 20:30 16,7 C 15,6 C 15,6 C 70 % 1020,2 hPa 0,0 l/m 0 min 0 min 67 W/m 0,0 km/h (0 Bft) 97,87 %
06.07.2020 20:32 16,7 C 15,6 C 15,6 C 70 % 1020,2 hPa 0,0 l/m 0 min 0 min 62 W/m 16,1 km/h (3 Bft) 97,87 %
06.07.2020 20:34 16,7 C 15,6 C 15,6 C 70 % 1020,2 hPa 0,0 l/m 0 min 0 min 57 W/m 9,7 km/h (2 Bft) 100,00 %
06.07.2020 20:36 16,6 C 15,6 C 15,6 C 70 % 1020,3 hPa 0,0 l/m 0 min 0 min 47 W/m 16,1 km/h (3 Bft) 100,00 %
06.07.2020 20:38 16,6 C 15,6 C 15,0 C 70 % 1020,3 hPa 0,0 l/m 0 min 0 min 46 W/m 19,3 km/h (3 Bft) 97,87 %
06.07.2020 20:40 16,6 C 15,6 C 15,0 C 71 % 1020,3 hPa 0,0 l/m 0 min 0 min 49 W/m 0,0 km/h (0 Bft) 97,87 %
06.07.2020 20:42 16,6 C 15,6 C 15,0 C 71 % 1020,2 hPa 0,0 l/m 0 min 0 min 49 W/m 3,2 km/h (1 Bft) 100,00 %
06.07.2020 20:44 16,5 C 15,6 C 15,0 C 71 % 1020,2 hPa 0,0 l/m 0 min 0 min 47 W/m 3,2 km/h (1 Bft) 100,00 %
06.07.2020 20:46 16,4 C 15,6 C 15,0 C 71 % 1020,3 hPa 0,0 l/m 0 min 0 min 46 W/m 16,1 km/h (3 Bft) 100,00 %
06.07.2020 20:48 16,4 C 15,6 C 15,0 C 71 % 1020,3 hPa 0,0 l/m 0 min 0 min 40 W/m 0,0 km/h (0 Bft) 97,87 %
06.07.2020 20:50 16,4 C 15,6 C 15,0 C 72 % 1020,3 hPa 0,0 l/m 0 min 0 min 37 W/m 0,0 km/h (0 Bft) 97,87 %
06.07.2020 20:52 16,4 C 15,6 C 15,0 C 72 % 1020,3 hPa 0,0 l/m 0 min 0 min 35 W/m 0,0 km/h (0 Bft) 97,83 %
06.07.2020 20:54 16,4 C 15,0 C 15,0 C 72 % 1020,4 hPa 0,0 l/m 0 min 0 min 34 W/m 3,2 km/h (1 Bft) 95,74 %
06.07.2020 20:56 16,3 C 15,0 C 15,0 C 72 % 1020,3 hPa 0,0 l/m 0 min 0 min 30 W/m 6,4 km/h (2 Bft) 95,74 %
06.07.2020 20:58 16,3 C 15,0 C 15,0 C 72 % 1020,4 hPa 0,0 l/m 0 min 0 min 30 W/m 0,0 km/h (0 Bft) 95,74 %
06.07.2020 21:00 16,3 C 15,0 C 15,0 C 73 % 1020,4 hPa 0,0 l/m 0 min 0 min 28 W/m 0,0 km/h (0 Bft) 97,87 %
06.07.2020 21:02 16,3 C 15,0 C 15,0 C 73 % 1020,5 hPa 0,0 l/m 0 min 0 min 26 W/m 0,0 km/h (0 Bft) 97,87 %
06.07.2020 21:04 16,3 C 15,0 C 15,0 C 74 % 1020,5 hPa 0,0 l/m 0 min 0 min 28 W/m 0,0 km/h (0 Bft) 97,83 %
06.07.2020 21:06 16,3 C 15,0 C 15,0 C 74 % 1020,5 hPa 0,0 l/m 0 min 0 min 31 W/m 9,7 km/h (2 Bft) 97,87 %
06.07.2020 21:08 16,2 C 15,0 C 15,0 C 74 % 1020,5 hPa 0,0 l/m 0 min 0 min 31 W/m 9,7 km/h (2 Bft) 100,00 %
06.07.2020 21:10 16,2 C 15,0 C 15,0 C 74 % 1020,5 hPa 0,0 l/m 0 min 0 min 26 W/m 0,0 km/h (0 Bft) 97,87 %
06.07.2020 21:12 16,2 C 15,0 C 15,0 C 74 % 1020,5 hPa 0,0 l/m 0 min 0 min 21 W/m 0,0 km/h (0 Bft) 97,87 %
06.07.2020 21:14 16,2 C 15,0 C 15,0 C 74 % 1020,6 hPa 0,0 l/m 0 min 0 min 18 W/m 3,2 km/h (1 Bft) 97,87 %
06.07.2020 21:16 16,2 C 15,0 C 15,0 C 74 % 1020,5 hPa 0,0 l/m 0 min 0 min 16 W/m 0,0 km/h (0 Bft) 98,08 %
06.07.2020 21:18 16,1 C 14,4 C 14,4 C 74 % 1020,6 hPa 0,0 l/m 0 min 0 min 16 W/m 0,0 km/h (0 Bft) 97,56 %
06.07.2020 21:20 16,1 C 14,4 C 14,4 C 74 % 1020,7 hPa 0,0 l/m 0 min 0 min 14 W/m 0,0 km/h (0 Bft) 97,87 %
06.07.2020 21:22 16,1 C 14,4 C 14,4 C 74 % 1020,7 hPa 0,0 l/m 0 min 0 min 14 W/m 0,0 km/h (0 Bft) 97,87 %
06.07.2020 21:24 16,1 C 14,4 C 14,4 C 75 % 1020,7 hPa 0,0 l/m 0 min 0 min 12 W/m 9,7 km/h (2 Bft) 93,62 %
06.07.2020 21:26 16,0 C 14,4 C 14,4 C 75 % 1020,7 hPa 0,0 l/m 0 min 0 min 12 W/m 6,4 km/h (2 Bft) 95,74 %
06.07.2020 21:28 16,0 C 14,4 C 14,4 C 75 % 1020,7 hPa 0,0 l/m 0 min 0 min 12 W/m 0,0 km/h (0 Bft) 93,48 %
06.07.2020 21:30 15,9 C 14,4 C 14,4 C 75 % 1020,7 hPa 0,0 l/m 0 min 0 min 10 W/m 0,0 km/h (0 Bft) 93,62 %
06.07.2020 21:32 15,9 C 14,4 C 14,4 C 75 % 1020,7 hPa 0,0 l/m 0 min 0 min 9 W/m 0,0 km/h (0 Bft) 95,74 %
06.07.2020 21:34 15,9 C 14,4 C 14,4 C 75 % 1020,7 hPa 0,0 l/m 0 min 0 min 9 W/m 0,0 km/h (0 Bft) 97,87 %
06.07.2020 21:36 15,9 C 14,4 C 14,4 C 75 % 1020,7 hPa 0,0 l/m 0 min 0 min 9 W/m 0,0 km/h (0 Bft) 95,74 %
06.07.2020 21:38 15,8 C 14,4 C 14,4 C 76 % 1020,8 hPa 0,0 l/m 0 min 0 min 9 W/m 6,4 km/h (2 Bft) 95,74 %
06.07.2020 21:40 15,8 C 14,4 C 14,4 C 75 % 1020,8 hPa 0,0 l/m 0 min 0 min 9 W/m 3,2 km/h (1 Bft) 97,83 %
06.07.2020 21:42 15,8 C 14,4 C 14,4 C 76 % 1020,8 hPa 0,0 l/m 0 min 0 min 8 W/m 6,4 km/h (2 Bft) 97,87 %
06.07.2020 21:44 15,8 C 14,4 C 14,4 C 76 % 1020,8 hPa 0,0 l/m 0 min 0 min 7 W/m 0,0 km/h (0 Bft) 97,87 %
06.07.2020 21:46 15,8 C 14,4 C 14,4 C 76 % 1020,8 hPa 0,0 l/m 0 min 0 min 7 W/m 0,0 km/h (0 Bft) 96,23 %
06.07.2020 21:48 15,8 C 14,4 C 14,4 C 76 % 1020,8 hPa 0,0 l/m 0 min 0 min 5 W/m 3,2 km/h (1 Bft) 100,00 %
06.07.2020 21:50 15,7 C 14,4 C 14,4 C 76 % 1020,9 hPa 0,0 l/m 0 min 0 min 5 W/m 6,4 km/h (2 Bft) 97,56 %
06.07.2020 21:52 15,7 C 13,9 C 13,9 C 76 % 1020,9 hPa 0,0 l/m 0 min 0 min 4 W/m 3,2 km/h (1 Bft) 97,87 %
06.07.2020 21:54 15,7 C 13,9 C 13,9 C 77 % 1020,9 hPa 0,0 l/m 0 min 0 min 0 W/m 0,0 km/h (0 Bft) 97,87 %
06.07.2020 21:56 15,6 C 13,9 C 13,9 C 77 % 1021,0 hPa 0,0 l/m 0 min 0 min 0 W/m 0,0 km/h (0 Bft) 95,74 %
06.07.2020 21:58 15,6 C 13,9 C 13,9 C 77 % 1021,0 hPa 0,0 l/m 0 min 0 min 0 W/m 0,0 km/h (0 Bft) 97,87 %
06.07.2020 22:00 15,6 C 13,9 C 13,9 C 77 % 1021,0 hPa 0,0 l/m 0 min 0 min 0 W/m 0,0 km/h (0 Bft) 97,87 %
06.07.2020 22:02 15,5 C 13,9 C 13,9 C 77 % 1021,0 hPa 0,0 l/m 0 min 0 min 0 W/m 0,0 km/h (0 Bft) 93,48 %
06.07.2020 22:04 15,5 C 13,9 C 13,9 C 77 % 1021,0 hPa 0,0 l/m 0 min 0 min 0 W/m 0,0 km/h (0 Bft) 98,11 %
06.07.2020 22:06 15,4 C 13,3 C 13,3 C 77 % 1021,1 hPa 0,0 l/m 0 min 0 min 0 W/m 0,0 km/h (0 Bft) 95,74 %
06.07.2020 22:08 15,4 C 13,3 C 13,3 C 77 % 1021,1 hPa 0,0 l/m 0 min 0 min 0 W/m 0,0 km/h (0 Bft) 95,74 %
06.07.2020 22:10 15,4 C 13,3 C 13,3 C 77 % 1021,2 hPa 0,0 l/m 0 min 0 min 0 W/m 0,0 km/h (0 Bft) 93,62 %
06.07.2020 22:12 15,3 C 13,3 C 13,3 C 78 % 1021,2 hPa 0,0 l/m 0 min 0 min 0 W/m 0,0 km/h (0 Bft) 95,83 %
06.07.2020 22:14 15,3 C 12,8 C 13,3 C 78 % 1021,2 hPa 0,0 l/m 0 min 0 min 0 W/m 0,0 km/h (0 Bft) 95,65 %
06.07.2020 22:16 15,3 C 12,8 C 13,3 C 78 % 1021,2 hPa 0,0 l/m 0 min 0 min 0 W/m 0,0 km/h (0 Bft) 97,87 %
06.07.2020 22:18 15,2 C 12,8 C 12,8 C 78 % 1021,2 hPa 0,0 l/m 0 min 0 min 0 W/m 0,0 km/h (0 Bft) 97,87 %
06.07.2020 22:20 15,2 C 12,8 C 12,8 C 78 % 1021,2 hPa 0,0 l/m 0 min 0 min 0 W/m 0,0 km/h (0 Bft) 97,87 %
06.07.2020 22:22 15,1 C 12,8 C 12,8 C 78 % 1021,2 hPa 0,0 l/m 0 min 0 min 0 W/m 0,0 km/h (0 Bft) 95,74 %
06.07.2020 22:24 15,1 C 12,8 C 12,8 C 79 % 1021,2 hPa 0,0 l/m 0 min 0 min 0 W/m 0,0 km/h (0 Bft) 95,65 %
06.07.2020 22:26 15,0 C 12,8 C 12,8 C 79 % 1021,2 hPa 0,0 l/m 0 min 0 min 0 W/m 0,0 km/h (0 Bft) 97,37 %
06.07.2020 22:28 14,9 C 12,8 C 12,8 C 79 % 1021,2 hPa 0,0 l/m 0 min 0 min 0 W/m 0,0 km/h (0 Bft) 95,74 %
06.07.2020 22:30 14,9 C 12,8 C 12,8 C 79 % 1021,2 hPa 0,0 l/m 0 min 0 min 0 W/m 0,0 km/h (0 Bft) 97,87 %
06.07.2020 22:32 14,8 C 12,8 C 12,8 C 79 % 1021,2 hPa 0,0 l/m 0 min 0 min 0 W/m 0,0 km/h (0 Bft) 95,74 %
06.07.2020 22:34 14,8 C 12,2 C 12,8 C 79 % 1021,2 hPa 0,0 l/m 0 min 0 min 0 W/m 0,0 km/h (0 Bft) 97,87 %
06.07.2020 22:36 14,7 C 12,2 C 12,8 C 79 % 1021,3 hPa 0,0 l/m 0 min 0 min 0 W/m 0,0 km/h (0 Bft) 97,87 %
06.07.2020 22:38 14,7 C 12,2 C 12,2 C 80 % 1021,3 hPa 0,0 l/m 0 min 0 min 0 W/m 0,0 km/h (0 Bft) 97,83 %
06.07.2020 22:40 14,6 C 12,2 C 12,2 C 80 % 1021,3 hPa 0,0 l/m 0 min 0 min 0 W/m 0,0 km/h (0 Bft) 95,74 %
06.07.2020 22:42 14,6 C 12,2 C 12,2 C 80 % 1021,3 hPa 0,0 l/m 0 min 0 min 0 W/m 0,0 km/h (0 Bft) 97,87 %
06.07.2020 22:44 14,5 C 12,2 C 12,2 C 80 % 1021,3 hPa 0,0 l/m 0 min 0 min 0 W/m 0,0 km/h (0 Bft) 97,87 %
06.07.2020 22:46 14,4 C 12,2 C 12,2 C 80 % 1021,3 hPa 0,0 l/m 0 min 0 min 0 W/m 0,0 km/h (0 Bft) 95,74 %
06.07.2020 22:48 14,4 C 12,2 C 12,2 C 80 % 1021,3 hPa 0,0 l/m 0 min 0 min 0 W/m 0,0 km/h (0 Bft) 93,62 %
06.07.2020 22:50 14,3 C 12,2 C 12,2 C 80 % 1021,3 hPa 0,0 l/m 0 min 0 min 0 W/m 0,0 km/h (0 Bft) 97,83 %
06.07.2020 22:52 14,3 C 12,2 C 12,2 C 81 % 1021,3 hPa 0,0 l/m 0 min 0 min 0 W/m 0,0 km/h (0 Bft) 97,87 %
06.07.2020 22:54 14,3 C 12,2 C 12,2 C 81 % 1021,4 hPa 0,0 l/m 0 min 0 min 0 W/m 0,0 km/h (0 Bft) 97,87 %
06.07.2020 22:56 14,3 C 12,2 C 12,2 C 82 % 1021,3 hPa 0,0 l/m 0 min 0 min 0 W/m 0,0 km/h (0 Bft) 97,87 %
06.07.2020 22:58 14,2 C 12,2 C 12,2 C 82 % 1021,3 hPa 0,0 l/m 0 min 0 min 0 W/m 0,0 km/h (0 Bft) 97,87 %
06.07.2020 23:00 14,2 C 12,2 C 12,2 C 82 % 1021,4 hPa 0,0 l/m 0 min 0 min 0 W/m 0,0 km/h (0 Bft) 97,83 %
06.07.2020 23:02 14,1 C 12,2 C 12,2 C 82 % 1021,4 hPa 0,0 l/m 0 min 0 min 0 W/m 0,0 km/h (0 Bft) 95,74 %
06.07.2020 23:04 14,1 C 12,2 C 12,2 C 83 % 1021,4 hPa 0,0 l/m 0 min 0 min 0 W/m 0,0 km/h (0 Bft) 97,87 %
06.07.2020 23:06 14,0 C 12,2 C 12,2 C 83 % 1021,4 hPa 0,0 l/m 0 min 0 min 0 W/m 0,0 km/h (0 Bft) 95,74 %
06.07.2020 23:08 14,0 C 12,2 C 12,2 C 83 % 1021,4 hPa 0,0 l/m 0 min 0 min 0 W/m 0,0 km/h (0 Bft) 95,74 %
06.07.2020 23:10 13,9 C 12,2 C 12,2 C 83 % 1021,4 hPa 0,0 l/m 0 min 0 min 0 W/m 0,0 km/h (0 Bft) 95,74 %
06.07.2020 23:12 13,9 C 12,2 C 12,2 C 83 % 1021,4 hPa 0,0 l/m 0 min 0 min 0 W/m 0,0 km/h (0 Bft) 97,83 %
06.07.2020 23:14 13,9 C 12,2 C 12,2 C 84 % 1021,4 hPa 0,0 l/m 0 min 0 min 0 W/m 0,0 km/h (0 Bft) 97,87 %
06.07.2020 23:16 13,8 C 12,2 C 12,2 C 84 % 1021,4 hPa 0,0 l/m 0 min 0 min 0 W/m 0,0 km/h (0 Bft) 91,49 %
06.07.2020 23:18 13,8 C 12,2 C 12,2 C 84 % 1021,4 hPa 0,0 l/m 0 min 0 min 0 W/m 0,0 km/h (0 Bft) 100,00 %
06.07.2020 23:20 13,8 C 12,2 C 12,2 C 84 % 1021,4 hPa 0,0 l/m 0 min 0 min 0 W/m 0,0 km/h (0 Bft) 97,87 %
06.07.2020 23:22 13,8 C 12,2 C 12,2 C 84 % 1021,4 hPa 0,0 l/m 0 min 0 min 0 W/m 0,0 km/h (0 Bft) 95,74 %
06.07.2020 23:24 13,7 C 12,2 C 12,2 C 84 % 1021,4 hPa 0,0 l/m 0 min 0 min 0 W/m 0,0 km/h (0 Bft) 95,65 %
06.07.2020 23:26 13,7 C 12,2 C 12,2 C 84 % 1021,4 hPa 0,0 l/m 0 min 0 min 0 W/m 0,0 km/h (0 Bft) 97,87 %
06.07.2020 23:28 13,7 C 12,2 C 12,2 C 85 % 1021,4 hPa 0,0 l/m 0 min 0 min 0 W/m 0,0 km/h (0 Bft) 97,87 %
06.07.2020 23:30 13,7 C 11,7 C 12,2 C 85 % 1021,5 hPa 0,0 l/m 0 min 0 min 0 W/m 0,0 km/h (0 Bft) 95,74 %
06.07.2020 23:32 13,6 C 12,2 C 12,2 C 85 % 1021,5 hPa 0,0 l/m 0 min 0 min 0 W/m 0,0 km/h (0 Bft) 97,92 %
06.07.2020 23:34 13,6 C 12,2 C 12,2 C 85 % 1021,5 hPa 0,0 l/m 0 min 0 min 0 W/m 0,0 km/h (0 Bft) 95,65 %
06.07.2020 23:36 13,6 C 11,7 C 12,2 C 85 % 1021,5 hPa 0,0 l/m 0 min 0 min 0 W/m 0,0 km/h (0 Bft) 97,87 %
06.07.2020 23:38 13,6 C 11,7 C 11,7 C 85 % 1021,5 hPa 0,0 l/m 0 min 0 min 0 W/m 0,0 km/h (0 Bft) 97,87 %
06.07.2020 23:40 13,5 C 11,7 C 11,7 C 86 % 1021,6 hPa 0,0 l/m 0 min 0 min 0 W/m 0,0 km/h (0 Bft) 95,74 %
06.07.2020 23:42 13,5 C 11,7 C 11,7 C 86 % 1021,6 hPa 0,0 l/m 0 min 0 min 0 W/m 0,0 km/h (0 Bft) 97,87 %
06.07.2020 23:44 13,4 C 11,7 C 11,7 C 86 % 1021,7 hPa 0,0 l/m 0 min 0 min 0 W/m 0,0 km/h (0 Bft) 97,87 %
06.07.2020 23:46 13,4 C 11,7 C 11,7 C 86 % 1021,7 hPa 0,0 l/m 0 min 0 min 0 W/m 0,0 km/h (0 Bft) 93,62 %
06.07.2020 23:48 13,4 C 11,7 C 11,7 C 86 % 1021,7 hPa 0,0 l/m 0 min 0 min 0 W/m 0,0 km/h (0 Bft) 95,65 %
06.07.2020 23:50 13,4 C 11,7 C 11,7 C 86 % 1021,7 hPa 0,0 l/m 0 min 0 min 0 W/m 0,0 km/h (0 Bft) 95,74 %
06.07.2020 23:52 13,3 C 11,7 C 11,7 C 86 % 1021,7 hPa 0,0 l/m 0 min 0 min 0 W/m 0,0 km/h (0 Bft) 97,87 %
06.07.2020 23:54 13,3 C 11,7 C 11,7 C 86 % 1021,7 hPa 0,0 l/m 0 min 0 min 0 W/m 0,0 km/h (0 Bft) 97,87 %
06.07.2020 23:56 13,3 C 11,7 C 11,7 C 86 % 1021,7 hPa 0,0 l/m 0 min 0 min 0 W/m 0,0 km/h (0 Bft) 97,92 %
06.07.2020 23:58 13,3 C 11,7 C 11,7 C 86 % 1021,7 hPa 0,0 l/m 0 min 0 min 0 W/m 0,0 km/h (0 Bft) 97,83 %
_ Min-Zeit 06:24 05:44 23:38 17:48 00:00 - - - - 15:30 02:32
Minimum _ 12,8 C 11,7 C 11,7 C 62 % 1012,3 hPa - - - - 0,0 km/h (0 Bft) 63,83 %
_ Max-Zeit 17:46 15:46 11:02 06:34 23:44 12:38 12:08 05:54 12:52 14:48 00:04
Maximum _ 20,4 C 25,0 C 20,6 C 89 % 1021,7 hPa 0,4 l/m 4 min 2 min 1127 W/m 45,1 km/h
SO (6 Bft)
100,00 %
Durchschnitt _ 16,1 C 16,0 C 15,3 C 77 % 1016,2 hPa #1,6 l/m #4:20 h #1:36 h 277 W/m 12,9 km/h (3 Bft) 97,33 %
© 2020 W. Hausmann